Wetterdaten: Sonntag, 08.02.2026
Datum Zeit Temp. Aussen Temp. o. S. Temp +5cm Feuchte Auss Luftdruck Regen Sonnenschein Regendauer Solar Windböen Empfang
08.02.2026 00:00 6,2 °C 5,6 °C 1,7 °C 92 % 1007,2 hPa 0,0 l/m² 0 min 0 min 0 W/m² 6,4 km/h (2 Bft) 95,65 %
08.02.2026 00:02 6,2 °C 5,6 °C 1,7 °C 92 % 1007,2 hPa 0,0 l/m² 0 min 0 min 0 W/m² 6,4 km/h (2 Bft) 97,22 %
08.02.2026 00:04 6,2 °C 5,6 °C 1,7 °C 92 % 1007,3 hPa 0,0 l/m² 0 min 0 min 0 W/m² 9,7 km/h (2 Bft) 95,74 %
08.02.2026 00:07 6,2 °C 5,6 °C 2,2 °C 92 % 1007,3 hPa 0,0 l/m² 0 min 0 min 0 W/m² 12,9 km/h (3 Bft) 95,83 %
08.02.2026 00:08 6,2 °C 5,6 °C 2,2 °C 92 % 1007,2 hPa 0,0 l/m² 0 min 0 min 0 W/m² 3,2 km/h (1 Bft) 100,00 %
08.02.2026 00:10 6,2 °C 5,6 °C 2,2 °C 92 % 1007,2 hPa 0,0 l/m² 0 min 0 min 0 W/m² 12,9 km/h (3 Bft) 95,83 %
08.02.2026 00:12 6,2 °C 5,6 °C 2,2 °C 92 % 1007,2 hPa 0,0 l/m² 0 min 0 min 0 W/m² 9,7 km/h (2 Bft) 95,65 %
08.02.2026 00:14 6,3 °C 5,6 °C 2,2 °C 92 % 1007,2 hPa 0,0 l/m² 0 min 0 min 0 W/m² 9,7 km/h (2 Bft) 95,74 %
08.02.2026 00:16 6,3 °C 5,6 °C 2,2 °C 92 % 1007,2 hPa 0,0 l/m² 0 min 0 min 0 W/m² 9,7 km/h (2 Bft) 97,87 %
08.02.2026 00:18 6,3 °C 5,6 °C 2,2 °C 92 % 1007,2 hPa 0,0 l/m² 0 min 0 min 0 W/m² 12,9 km/h (3 Bft) 93,62 %
08.02.2026 00:20 6,3 °C 5,6 °C 2,2 °C 92 % 1007,2 hPa 0,0 l/m² 0 min 0 min 0 W/m² 12,9 km/h (3 Bft) 97,87 %
08.02.2026 00:22 6,3 °C 5,6 °C 2,2 °C 92 % 1007,2 hPa 0,0 l/m² 0 min 0 min 0 W/m² 16,1 km/h (3 Bft) 95,74 %
08.02.2026 00:24 6,3 °C 5,6 °C 2,2 °C 93 % 1007,1 hPa 0,0 l/m² 0 min 0 min 0 W/m² 12,9 km/h (3 Bft) 95,65 %
08.02.2026 00:26 6,3 °C 5,6 °C 2,2 °C 93 % 1007,2 hPa 0,0 l/m² 0 min 0 min 0 W/m² 12,9 km/h (3 Bft) 95,74 %
08.02.2026 00:28 6,3 °C 5,6 °C 2,2 °C 93 % 1007,2 hPa 0,0 l/m² 0 min 0 min 0 W/m² 12,9 km/h (3 Bft) 97,87 %
08.02.2026 00:30 6,4 °C 5,6 °C 2,2 °C 93 % 1007,2 hPa 0,0 l/m² 0 min 0 min 0 W/m² 12,9 km/h (3 Bft) 95,74 %
08.02.2026 00:32 6,4 °C 5,6 °C 2,2 °C 93 % 1007,2 hPa 0,0 l/m² 0 min 0 min 0 W/m² 12,9 km/h (3 Bft) 55,56 %
08.02.2026 00:34 6,4 °C 5,6 °C 2,2 °C 93 % 1007,2 hPa 0,0 l/m² 0 min 0 min 0 W/m² 6,4 km/h (2 Bft) 97,83 %
08.02.2026 00:36 6,4 °C 5,6 °C 2,2 °C 93 % 1007,2 hPa 0,0 l/m² 0 min 0 min 0 W/m² 6,4 km/h (2 Bft) 95,74 %
08.02.2026 00:38 6,4 °C 5,6 °C 2,2 °C 93 % 1007,2 hPa 0,0 l/m² 0 min 0 min 0 W/m² 12,9 km/h (3 Bft) 95,74 %
08.02.2026 00:40 6,4 °C 5,6 °C 2,2 °C 93 % 1007,2 hPa 0,0 l/m² 0 min 0 min 0 W/m² 12,9 km/h (3 Bft) 93,62 %
08.02.2026 00:42 6,4 °C 5,6 °C 2,2 °C 93 % 1007,2 hPa 0,0 l/m² 0 min 0 min 0 W/m² 9,7 km/h (2 Bft) 97,87 %
08.02.2026 00:44 6,4 °C 5,6 °C 2,2 °C 93 % 1007,2 hPa 0,0 l/m² 0 min 0 min 0 W/m² 9,7 km/h (2 Bft) 97,87 %
08.02.2026 00:46 6,4 °C 5,6 °C 2,2 °C 93 % 1007,2 hPa 0,0 l/m² 0 min 0 min 0 W/m² 12,9 km/h (3 Bft) 93,48 %
08.02.2026 00:48 6,4 °C 5,6 °C 1,7 °C 93 % 1007,2 hPa 0,0 l/m² 0 min 0 min 0 W/m² 12,9 km/h (3 Bft) 97,87 %
08.02.2026 00:50 6,4 °C 5,6 °C 1,7 °C 93 % 1007,3 hPa 0,0 l/m² 0 min 0 min 0 W/m² 12,9 km/h (3 Bft) 97,87 %
08.02.2026 00:52 6,4 °C 5,6 °C 1,7 °C 93 % 1007,2 hPa 0,0 l/m² 0 min 0 min 0 W/m² 16,1 km/h (3 Bft) 97,87 %
08.02.2026 00:54 6,4 °C 5,6 °C 1,7 °C 93 % 1007,2 hPa 0,0 l/m² 0 min 0 min 0 W/m² 12,9 km/h (3 Bft) 97,87 %
08.02.2026 00:56 6,4 °C 5,6 °C 1,7 °C 93 % 1007,2 hPa 0,0 l/m² 0 min 0 min 0 W/m² 12,9 km/h (3 Bft) 93,62 %
08.02.2026 00:58 6,4 °C 5,6 °C 1,7 °C 93 % 1007,3 hPa 0,0 l/m² 0 min 0 min 0 W/m² 9,7 km/h (2 Bft) 97,83 %
08.02.2026 01:00 6,4 °C 5,6 °C 1,7 °C 93 % 1007,3 hPa 0,0 l/m² 0 min 0 min 0 W/m² 6,4 km/h (2 Bft) 97,87 %
08.02.2026 01:02 6,3 °C 5,6 °C 1,7 °C 93 % 1007,3 hPa 0,0 l/m² 0 min 0 min 0 W/m² 12,9 km/h (3 Bft) 97,87 %
08.02.2026 01:04 6,3 °C 5,6 °C 1,7 °C 93 % 1007,3 hPa 0,0 l/m² 0 min 0 min 0 W/m² 12,9 km/h (3 Bft) 97,92 %
08.02.2026 01:06 6,3 °C 5,6 °C 1,7 °C 93 % 1007,3 hPa 0,0 l/m² 0 min 0 min 0 W/m² 12,9 km/h (3 Bft) 97,87 %
08.02.2026 01:08 6,3 °C 5,6 °C 1,7 °C 93 % 1007,3 hPa 0,0 l/m² 0 min 0 min 0 W/m² 9,7 km/h (2 Bft) 97,87 %
08.02.2026 01:10 6,3 °C 5,6 °C 1,7 °C 93 % 1007,3 hPa 0,0 l/m² 0 min 0 min 0 W/m² 19,3 km/h (3 Bft) 97,87 %
08.02.2026 01:12 6,2 °C 5,0 °C 1,7 °C 93 % 1007,4 hPa 0,0 l/m² 0 min 0 min 0 W/m² 9,7 km/h (2 Bft) 95,65 %
08.02.2026 01:14 6,2 °C 5,0 °C 1,7 °C 93 % 1007,4 hPa 0,0 l/m² 0 min 0 min 0 W/m² 16,1 km/h (3 Bft) 97,87 %
08.02.2026 01:16 6,2 °C 5,0 °C 1,7 °C 93 % 1007,4 hPa 0,0 l/m² 0 min 0 min 0 W/m² 12,9 km/h (3 Bft) 95,74 %
08.02.2026 01:18 6,2 °C 5,0 °C 1,7 °C 93 % 1007,3 hPa 0,0 l/m² 0 min 0 min 0 W/m² 16,1 km/h (3 Bft) 97,87 %
08.02.2026 01:20 6,1 °C 5,0 °C 1,7 °C 93 % 1007,4 hPa 0,0 l/m² 0 min 0 min 0 W/m² 12,9 km/h (3 Bft) 95,74 %
08.02.2026 01:22 6,1 °C 5,0 °C 1,7 °C 93 % 1007,4 hPa 0,0 l/m² 0 min 0 min 0 W/m² 12,9 km/h (3 Bft) 97,87 %
08.02.2026 01:24 6,1 °C 5,0 °C 1,7 °C 93 % 1007,4 hPa 0,0 l/m² 0 min 0 min 0 W/m² 16,1 km/h (3 Bft) 97,83 %
08.02.2026 01:26 6,1 °C 5,0 °C 1,7 °C 93 % 1007,4 hPa 0,0 l/m² 0 min 0 min 0 W/m² 6,4 km/h (2 Bft) 100,00 %
08.02.2026 01:28 6,1 °C 5,0 °C 1,7 °C 93 % 1007,4 hPa 0,0 l/m² 0 min 0 min 0 W/m² 16,1 km/h (3 Bft) 100,00 %
08.02.2026 01:30 6,1 °C 5,0 °C 1,7 °C 93 % 1007,5 hPa 0,0 l/m² 0 min 0 min 0 W/m² 6,4 km/h (2 Bft) 100,00 %
08.02.2026 01:32 6,1 °C 5,0 °C 1,7 °C 93 % 1007,5 hPa 0,0 l/m² 0 min 0 min 0 W/m² 16,1 km/h (3 Bft) 100,00 %
08.02.2026 01:34 6,1 °C 5,0 °C 1,7 °C 93 % 1007,5 hPa 0,0 l/m² 0 min 0 min 0 W/m² 12,9 km/h (3 Bft) 100,00 %
08.02.2026 01:36 6,1 °C 5,0 °C 1,7 °C 93 % 1007,4 hPa 0,0 l/m² 0 min 0 min 0 W/m² 6,4 km/h (2 Bft) 97,87 %
08.02.2026 01:38 6,0 °C 5,0 °C 1,7 °C 93 % 1007,5 hPa 0,0 l/m² 0 min 0 min 0 W/m² 6,4 km/h (2 Bft) 100,00 %
08.02.2026 01:40 6,0 °C 5,0 °C 1,7 °C 94 % 1007,5 hPa 0,0 l/m² 0 min 0 min 0 W/m² 16,1 km/h (3 Bft) 100,00 %
08.02.2026 01:42 6,0 °C 5,0 °C 1,7 °C 94 % 1007,5 hPa 0,0 l/m² 0 min 0 min 0 W/m² 16,1 km/h (3 Bft) 100,00 %
08.02.2026 01:44 6,0 °C 5,0 °C 1,7 °C 94 % 1007,5 hPa 0,0 l/m² 0 min 0 min 0 W/m² 16,1 km/h (3 Bft) 100,00 %
08.02.2026 01:46 6,0 °C 5,0 °C 1,7 °C 94 % 1007,5 hPa 0,0 l/m² 0 min 0 min 0 W/m² 12,9 km/h (3 Bft) 100,00 %
08.02.2026 01:48 6,0 °C 5,0 °C 1,7 °C 94 % 1007,5 hPa 0,0 l/m² 0 min 0 min 0 W/m² 6,4 km/h (2 Bft) 100,00 %
08.02.2026 01:50 6,0 °C 5,0 °C 1,7 °C 94 % 1007,5 hPa 0,0 l/m² 0 min 0 min 0 W/m² 9,7 km/h (2 Bft) 100,00 %
08.02.2026 01:52 6,0 °C 5,0 °C 1,7 °C 94 % 1007,5 hPa 0,0 l/m² 0 min 0 min 0 W/m² 16,1 km/h (3 Bft) 100,00 %
08.02.2026 01:54 5,9 °C 5,0 °C 1,7 °C 94 % 1007,5 hPa 0,0 l/m² 0 min 0 min 0 W/m² 12,9 km/h (3 Bft) 100,00 %
08.02.2026 01:56 5,9 °C 5,0 °C 1,7 °C 94 % 1007,5 hPa 0,0 l/m² 0 min 0 min 0 W/m² 9,7 km/h (2 Bft) 97,87 %
08.02.2026 01:58 5,9 °C 5,0 °C 1,7 °C 94 % 1007,5 hPa 0,0 l/m² 0 min 0 min 0 W/m² 16,1 km/h (3 Bft) 97,92 %
08.02.2026 02:00 5,9 °C 5,0 °C 1,7 °C 94 % 1007,5 hPa 0,0 l/m² 0 min 0 min 0 W/m² 12,9 km/h (3 Bft) 100,00 %
08.02.2026 02:02 5,9 °C 5,0 °C 1,7 °C 94 % 1007,5 hPa 0,0 l/m² 0 min 0 min 0 W/m² 12,9 km/h (3 Bft) 100,00 %
08.02.2026 02:04 5,8 °C 5,0 °C 1,1 °C 94 % 1007,4 hPa 0,0 l/m² 0 min 0 min 0 W/m² 12,9 km/h (3 Bft) 100,00 %
08.02.2026 02:06 5,8 °C 5,0 °C 1,1 °C 94 % 1007,5 hPa 0,0 l/m² 0 min 0 min 0 W/m² 12,9 km/h (3 Bft) 100,00 %
08.02.2026 02:08 5,8 °C 5,0 °C 1,1 °C 94 % 1007,5 hPa 0,0 l/m² 0 min 0 min 0 W/m² 12,9 km/h (3 Bft) 100,00 %
08.02.2026 02:10 5,8 °C 5,0 °C 1,1 °C 94 % 1007,5 hPa 0,0 l/m² 0 min 0 min 0 W/m² 12,9 km/h (3 Bft) 100,00 %
08.02.2026 02:12 5,8 °C 5,0 °C 1,1 °C 94 % 1007,5 hPa 0,0 l/m² 0 min 0 min 0 W/m² 12,9 km/h (3 Bft) 100,00 %
08.02.2026 02:14 5,7 °C 5,0 °C 1,1 °C 94 % 1007,6 hPa 0,0 l/m² 0 min 0 min 0 W/m² 19,3 km/h (3 Bft) 100,00 %
08.02.2026 02:16 5,7 °C 4,4 °C 1,1 °C 94 % 1007,6 hPa 0,0 l/m² 0 min 0 min 0 W/m² 16,1 km/h (3 Bft) 100,00 %
08.02.2026 02:18 5,7 °C 4,4 °C 1,1 °C 94 % 1007,5 hPa 0,0 l/m² 0 min 0 min 0 W/m² 12,9 km/h (3 Bft) 100,00 %
08.02.2026 02:20 5,7 °C 4,4 °C 1,1 °C 94 % 1007,6 hPa 0,0 l/m² 0 min 0 min 0 W/m² 6,4 km/h (2 Bft) 100,00 %
08.02.2026 02:22 5,6 °C 4,4 °C 1,1 °C 94 % 1007,6 hPa 0,0 l/m² 0 min 0 min 0 W/m² 16,1 km/h (3 Bft) 100,00 %
08.02.2026 02:24 5,6 °C 4,4 °C 1,1 °C 94 % 1007,6 hPa 0,0 l/m² 0 min 0 min 0 W/m² 6,4 km/h (2 Bft) 95,74 %
08.02.2026 02:26 5,6 °C 4,4 °C 1,1 °C 94 % 1007,6 hPa 0,0 l/m² 0 min 0 min 0 W/m² 12,9 km/h (3 Bft) 95,74 %
08.02.2026 02:28 5,6 °C 4,4 °C 1,1 °C 94 % 1007,6 hPa 0,0 l/m² 0 min 0 min 0 W/m² 12,9 km/h (3 Bft) 93,62 %
08.02.2026 02:30 5,5 °C 4,4 °C 1,1 °C 94 % 1007,6 hPa 0,0 l/m² 0 min 0 min 0 W/m² 6,4 km/h (2 Bft) 97,83 %
08.02.2026 02:32 5,5 °C 4,4 °C 1,1 °C 94 % 1007,6 hPa 0,0 l/m² 0 min 0 min 0 W/m² 12,9 km/h (3 Bft) 95,74 %
08.02.2026 02:34 5,4 °C 4,4 °C 1,1 °C 94 % 1007,6 hPa 0,0 l/m² 0 min 0 min 0 W/m² 6,4 km/h (2 Bft) 93,62 %
08.02.2026 02:36 5,4 °C 4,4 °C 1,1 °C 94 % 1007,7 hPa 0,0 l/m² 0 min 0 min 0 W/m² 6,4 km/h (2 Bft) 95,74 %
08.02.2026 02:38 5,4 °C 4,4 °C 1,1 °C 94 % 1007,6 hPa 0,0 l/m² 0 min 0 min 0 W/m² 16,1 km/h (3 Bft) 93,62 %
08.02.2026 02:40 5,3 °C 4,4 °C 1,1 °C 94 % 1007,6 hPa 0,0 l/m² 0 min 0 min 0 W/m² 12,9 km/h (3 Bft) 95,74 %
08.02.2026 02:42 5,3 °C 4,4 °C 1,1 °C 94 % 1007,6 hPa 0,0 l/m² 0 min 0 min 0 W/m² 12,9 km/h (3 Bft) 93,48 %
08.02.2026 02:44 5,3 °C 4,4 °C 0,6 °C 94 % 1007,6 hPa 0,0 l/m² 0 min 0 min 0 W/m² 12,9 km/h (3 Bft) 95,74 %
08.02.2026 02:46 5,3 °C 4,4 °C 0,6 °C 94 % 1007,6 hPa 0,0 l/m² 0 min 0 min 0 W/m² 12,9 km/h (3 Bft) 89,36 %
08.02.2026 02:48 5,2 °C 4,4 °C 0,6 °C 94 % 1007,6 hPa 0,0 l/m² 0 min 0 min 0 W/m² 12,9 km/h (3 Bft) 89,36 %
08.02.2026 02:50 5,2 °C 3,9 °C 0,6 °C 94 % 1007,6 hPa 0,0 l/m² 0 min 0 min 0 W/m² 6,4 km/h (2 Bft) 93,62 %
08.02.2026 02:52 5,2 °C 3,9 °C 0,6 °C 94 % 1007,6 hPa 0,0 l/m² 0 min 0 min 0 W/m² 12,9 km/h (3 Bft) 91,49 %
08.02.2026 02:54 5,2 °C 3,9 °C 0,6 °C 94 % 1007,6 hPa 0,0 l/m² 0 min 0 min 0 W/m² 9,7 km/h (2 Bft) 93,48 %
08.02.2026 02:56 5,1 °C 3,9 °C 0,6 °C 94 % 1007,5 hPa 0,0 l/m² 0 min 0 min 0 W/m² 6,4 km/h (2 Bft) 93,62 %
08.02.2026 02:58 5,1 °C 3,9 °C 0,6 °C 94 % 1007,5 hPa 0,0 l/m² 0 min 0 min 0 W/m² 6,4 km/h (2 Bft) 91,49 %
08.02.2026 03:00 5,1 °C 3,9 °C 0,6 °C 94 % 1007,5 hPa 0,0 l/m² 0 min 0 min 0 W/m² 6,4 km/h (2 Bft) 89,36 %
08.02.2026 03:02 5,1 °C 3,9 °C 0,6 °C 94 % 1007,5 hPa 0,0 l/m² 0 min 0 min 0 W/m² 6,4 km/h (2 Bft) 93,62 %
08.02.2026 03:04 5,0 °C 3,9 °C 0,6 °C 94 % 1007,5 hPa 0,0 l/m² 0 min 0 min 0 W/m² 12,9 km/h (3 Bft) 89,36 %
08.02.2026 03:06 5,0 °C 3,9 °C 0,6 °C 94 % 1007,5 hPa 0,0 l/m² 0 min 0 min 0 W/m² 12,9 km/h (3 Bft) 93,48 %
08.02.2026 03:08 4,9 °C 3,9 °C 0,6 °C 94 % 1007,4 hPa 0,0 l/m² 0 min 0 min 0 W/m² 12,9 km/h (3 Bft) 91,49 %
08.02.2026 03:10 4,9 °C 3,9 °C 0,6 °C 94 % 1007,5 hPa 0,0 l/m² 0 min 0 min 0 W/m² 12,9 km/h (3 Bft) 91,49 %
08.02.2026 03:12 4,9 °C 3,9 °C 0,6 °C 94 % 1007,5 hPa 0,0 l/m² 0 min 0 min 0 W/m² 12,9 km/h (3 Bft) 93,62 %
08.02.2026 03:14 4,8 °C 3,9 °C 0,6 °C 94 % 1007,5 hPa 0,0 l/m² 0 min 0 min 0 W/m² 12,9 km/h (3 Bft) 93,62 %
08.02.2026 03:16 4,8 °C 3,9 °C 0,6 °C 95 % 1007,6 hPa 0,0 l/m² 0 min 0 min 0 W/m² 12,9 km/h (3 Bft) 97,87 %
08.02.2026 03:18 4,8 °C 3,9 °C 0,6 °C 95 % 1007,5 hPa 0,0 l/m² 0 min 0 min 0 W/m² 16,1 km/h (3 Bft) 100,00 %
08.02.2026 03:20 4,8 °C 3,9 °C 0,6 °C 95 % 1007,5 hPa 0,0 l/m² 0 min 0 min 0 W/m² 19,3 km/h (3 Bft) 97,87 %
08.02.2026 03:22 4,8 °C 3,9 °C 0,6 °C 95 % 1007,6 hPa 0,0 l/m² 0 min 0 min 0 W/m² 12,9 km/h (3 Bft) 100,00 %
08.02.2026 03:24 4,7 °C 3,9 °C 0,6 °C 95 % 1007,6 hPa 0,0 l/m² 0 min 0 min 0 W/m² 12,9 km/h (3 Bft) 100,00 %
08.02.2026 03:26 4,7 °C 3,3 °C 0,6 °C 95 % 1007,7 hPa 0,0 l/m² 0 min 0 min 0 W/m² 9,7 km/h (2 Bft) 100,00 %
08.02.2026 03:28 4,7 °C 3,3 °C 0,0 °C 95 % 1007,7 hPa 0,0 l/m² 0 min 0 min 0 W/m² 12,9 km/h (3 Bft) 97,87 %
08.02.2026 03:30 4,6 °C 3,3 °C 0,0 °C 95 % 1007,7 hPa 0,0 l/m² 0 min 0 min 0 W/m² 12,9 km/h (3 Bft) 95,65 %
08.02.2026 03:32 4,6 °C 3,3 °C 0,0 °C 95 % 1007,7 hPa 0,0 l/m² 0 min 0 min 0 W/m² 9,7 km/h (2 Bft) 100,00 %
08.02.2026 03:34 4,6 °C 3,3 °C 0,0 °C 95 % 1007,7 hPa 0,0 l/m² 0 min 0 min 0 W/m² 6,4 km/h (2 Bft) 100,00 %
08.02.2026 03:36 4,5 °C 3,3 °C 0,0 °C 95 % 1007,7 hPa 0,0 l/m² 0 min 0 min 0 W/m² 12,9 km/h (3 Bft) 100,00 %
08.02.2026 03:38 4,4 °C 3,3 °C 0,0 °C 95 % 1007,7 hPa 0,0 l/m² 0 min 0 min 0 W/m² 19,3 km/h (3 Bft) 100,00 %
08.02.2026 03:40 4,4 °C 3,3 °C 0,0 °C 95 % 1007,7 hPa 0,0 l/m² 0 min 0 min 0 W/m² 12,9 km/h (3 Bft) 100,00 %
08.02.2026 03:42 4,4 °C 3,3 °C 0,0 °C 95 % 1007,8 hPa 0,0 l/m² 0 min 0 min 0 W/m² 12,9 km/h (3 Bft) 100,00 %
08.02.2026 03:44 4,3 °C 3,3 °C 0,0 °C 95 % 1007,8 hPa 0,0 l/m² 0 min 0 min 0 W/m² 12,9 km/h (3 Bft) 100,00 %
08.02.2026 03:46 4,3 °C 3,3 °C 0,0 °C 95 % 1007,8 hPa 0,0 l/m² 0 min 0 min 0 W/m² 12,9 km/h (3 Bft) 95,74 %
08.02.2026 03:48 4,3 °C 3,3 °C 0,0 °C 95 % 1007,8 hPa 0,0 l/m² 0 min 0 min 0 W/m² 16,1 km/h (3 Bft) 97,87 %
08.02.2026 03:50 4,3 °C 3,3 °C 0,0 °C 95 % 1007,8 hPa 0,0 l/m² 0 min 0 min 0 W/m² 6,4 km/h (2 Bft) 97,87 %
08.02.2026 03:52 4,3 °C 3,3 °C 0,0 °C 95 % 1007,9 hPa 0,0 l/m² 0 min 0 min 0 W/m² 22,5 km/h (4 Bft) 100,00 %
08.02.2026 03:54 4,3 °C 3,3 °C 0,0 °C 95 % 1007,9 hPa 0,0 l/m² 0 min 0 min 0 W/m² 16,1 km/h (3 Bft) 100,00 %
08.02.2026 03:56 4,3 °C 3,3 °C 0,0 °C 95 % 1007,9 hPa 0,0 l/m² 0 min 0 min 0 W/m² 16,1 km/h (3 Bft) 100,00 %
08.02.2026 03:58 4,3 °C 3,3 °C 0,0 °C 95 % 1007,9 hPa 0,0 l/m² 0 min 0 min 0 W/m² 12,9 km/h (3 Bft) 100,00 %
08.02.2026 04:00 4,3 °C 3,3 °C 0,0 °C 95 % 1007,9 hPa 0,0 l/m² 0 min 0 min 0 W/m² 12,9 km/h (3 Bft) 100,00 %
08.02.2026 04:02 4,3 °C 3,3 °C 0,0 °C 95 % 1007,9 hPa 0,0 l/m² 0 min 0 min 0 W/m² 12,9 km/h (3 Bft) 100,00 %
08.02.2026 04:04 4,3 °C 3,3 °C 0,0 °C 96 % 1007,9 hPa 0,0 l/m² 0 min 0 min 0 W/m² 12,9 km/h (3 Bft) 97,56 %
08.02.2026 04:06 4,3 °C 3,3 °C 0,0 °C 96 % 1007,9 hPa 0,0 l/m² 0 min 0 min 0 W/m² 12,9 km/h (3 Bft) 100,00 %
08.02.2026 04:08 4,3 °C 3,3 °C 0,0 °C 95 % 1007,9 hPa 0,0 l/m² 0 min 0 min 0 W/m² 12,9 km/h (3 Bft) 97,56 %
08.02.2026 04:10 4,3 °C 3,3 °C 0,0 °C 95 % 1007,9 hPa 0,0 l/m² 0 min 0 min 0 W/m² 9,7 km/h (2 Bft) 93,62 %
08.02.2026 04:12 4,3 °C 3,3 °C 0,0 °C 96 % 1007,9 hPa 0,0 l/m² 0 min 0 min 0 W/m² 19,3 km/h (3 Bft) 100,00 %
08.02.2026 04:14 4,3 °C 3,3 °C 0,0 °C 96 % 1008,0 hPa 0,0 l/m² 0 min 0 min 0 W/m² 6,4 km/h (2 Bft) 100,00 %
08.02.2026 04:16 4,3 °C 3,3 °C 0,0 °C 96 % 1007,9 hPa 0,0 l/m² 0 min 0 min 0 W/m² 12,9 km/h (3 Bft) 100,00 %
08.02.2026 04:18 4,3 °C 3,3 °C 0,0 °C 96 % 1007,9 hPa 0,0 l/m² 0 min 0 min 0 W/m² 9,7 km/h (2 Bft) 100,00 %
08.02.2026 04:20 4,3 °C 3,3 °C 0,0 °C 96 % 1007,8 hPa 0,0 l/m² 0 min 0 min 0 W/m² 12,9 km/h (3 Bft) 100,00 %
08.02.2026 04:22 4,3 °C 3,3 °C 0,0 °C 96 % 1007,9 hPa 0,0 l/m² 0 min 0 min 0 W/m² 12,9 km/h (3 Bft) 100,00 %
08.02.2026 04:24 4,3 °C 3,3 °C 0,0 °C 96 % 1007,8 hPa 0,0 l/m² 0 min 0 min 0 W/m² 12,9 km/h (3 Bft) 97,87 %
08.02.2026 04:26 4,3 °C 3,3 °C 0,0 °C 96 % 1007,8 hPa 0,0 l/m² 0 min 0 min 0 W/m² 6,4 km/h (2 Bft) 100,00 %
08.02.2026 04:28 4,3 °C 3,3 °C 0,0 °C 96 % 1007,9 hPa 0,0 l/m² 0 min 0 min 0 W/m² 9,7 km/h (2 Bft) 100,00 %
08.02.2026 04:30 4,3 °C 3,3 °C 0,0 °C 96 % 1007,9 hPa 0,0 l/m² 0 min 0 min 0 W/m² 16,1 km/h (3 Bft) 100,00 %
08.02.2026 04:32 4,3 °C 3,3 °C 0,0 °C 96 % 1007,9 hPa 0,0 l/m² 0 min 0 min 0 W/m² 12,9 km/h (3 Bft) 97,83 %
08.02.2026 04:34 4,3 °C 3,3 °C 0,0 °C 96 % 1007,9 hPa 0,0 l/m² 0 min 0 min 0 W/m² 16,1 km/h (3 Bft) 97,87 %
08.02.2026 04:36 4,3 °C 3,3 °C 0,0 °C 96 % 1007,9 hPa 0,0 l/m² 0 min 0 min 0 W/m² 16,1 km/h (3 Bft) 97,87 %
08.02.2026 04:38 4,3 °C 3,3 °C 0,0 °C 96 % 1007,9 hPa 0,0 l/m² 0 min 0 min 0 W/m² 6,4 km/h (2 Bft) 97,87 %
08.02.2026 04:40 4,3 °C 3,3 °C 0,0 °C 96 % 1007,9 hPa 0,0 l/m² 0 min 0 min 0 W/m² 6,4 km/h (2 Bft) 97,87 %
08.02.2026 04:42 4,3 °C 3,3 °C 0,0 °C 96 % 1007,9 hPa 0,0 l/m² 0 min 0 min 0 W/m² 12,9 km/h (3 Bft) 91,30 %
08.02.2026 04:44 4,3 °C 3,3 °C 0,0 °C 96 % 1007,8 hPa 0,0 l/m² 0 min 0 min 0 W/m² 12,9 km/h (3 Bft) 93,62 %
08.02.2026 04:46 4,3 °C 3,3 °C 0,0 °C 96 % 1007,8 hPa 0,0 l/m² 0 min 0 min 0 W/m² 9,7 km/h (2 Bft) 97,87 %
08.02.2026 04:48 4,3 °C 3,3 °C 0,0 °C 96 % 1007,9 hPa 0,0 l/m² 0 min 0 min 0 W/m² 12,9 km/h (3 Bft) 97,87 %
08.02.2026 04:50 4,3 °C 3,3 °C 0,0 °C 96 % 1007,9 hPa 0,0 l/m² 0 min 0 min 0 W/m² 12,9 km/h (3 Bft) 97,87 %
08.02.2026 04:52 4,3 °C 3,3 °C 0,0 °C 96 % 1007,9 hPa 0,0 l/m² 0 min 0 min 0 W/m² 16,1 km/h (3 Bft) 93,62 %
08.02.2026 04:54 4,3 °C 3,3 °C 0,0 °C 96 % 1007,9 hPa 0,0 l/m² 0 min 0 min 0 W/m² 12,9 km/h (3 Bft) 93,48 %
08.02.2026 04:56 4,3 °C 3,3 °C 0,0 °C 97 % 1007,9 hPa 0,0 l/m² 0 min 0 min 0 W/m² 12,9 km/h (3 Bft) 97,87 %
08.02.2026 04:58 4,3 °C 3,3 °C 0,0 °C 97 % 1007,9 hPa 0,0 l/m² 0 min 0 min 0 W/m² 16,1 km/h (3 Bft) 95,74 %
08.02.2026 05:00 4,3 °C 3,3 °C 0,6 °C 97 % 1007,9 hPa 0,0 l/m² 0 min 0 min 0 W/m² 16,1 km/h (3 Bft) 95,74 %
08.02.2026 05:02 4,3 °C 3,3 °C 0,6 °C 97 % 1007,9 hPa 0,0 l/m² 0 min 0 min 0 W/m² 12,9 km/h (3 Bft) 91,49 %
08.02.2026 05:04 4,3 °C 3,3 °C 0,6 °C 97 % 1007,9 hPa 0,0 l/m² 0 min 0 min 0 W/m² 19,3 km/h (3 Bft) 93,75 %
08.02.2026 05:06 4,3 °C 3,3 °C 0,6 °C 97 % 1007,9 hPa 0,0 l/m² 0 min 0 min 0 W/m² 19,3 km/h (3 Bft) 94,34 %
08.02.2026 05:08 4,3 °C 3,3 °C 0,6 °C 97 % 1007,9 hPa 0,0 l/m² 0 min 0 min 0 W/m² 16,1 km/h (3 Bft) 97,92 %
08.02.2026 05:10 4,3 °C 3,3 °C 0,6 °C 97 % 1007,9 hPa 0,0 l/m² 0 min 0 min 0 W/m² 16,1 km/h (3 Bft) 97,87 %
08.02.2026 05:12 4,3 °C 3,3 °C 0,6 °C 97 % 1007,9 hPa 0,0 l/m² 0 min 0 min 0 W/m² 12,9 km/h (3 Bft) 97,87 %
08.02.2026 05:14 4,3 °C 3,3 °C 0,6 °C 97 % 1007,9 hPa 0,0 l/m² 0 min 0 min 0 W/m² 12,9 km/h (3 Bft) 97,83 %
08.02.2026 05:16 4,3 °C 3,3 °C 0,6 °C 97 % 1008,0 hPa 0,0 l/m² 0 min 0 min 0 W/m² 19,3 km/h (3 Bft) 95,74 %
08.02.2026 05:18 4,3 °C 3,3 °C 0,6 °C 97 % 1007,9 hPa 0,0 l/m² 0 min 0 min 0 W/m² 16,1 km/h (3 Bft) 95,74 %
08.02.2026 05:20 4,3 °C 3,3 °C 0,6 °C 97 % 1007,9 hPa 0,0 l/m² 0 min 0 min 0 W/m² 12,9 km/h (3 Bft) 97,87 %
08.02.2026 05:22 4,3 °C 3,9 °C 0,6 °C 97 % 1007,9 hPa 0,0 l/m² 0 min 0 min 0 W/m² 19,3 km/h (3 Bft) 97,87 %
08.02.2026 05:24 4,3 °C 3,9 °C 0,6 °C 97 % 1007,9 hPa 0,0 l/m² 0 min 0 min 0 W/m² 12,9 km/h (3 Bft) 97,87 %
08.02.2026 05:26 4,3 °C 3,9 °C 0,6 °C 97 % 1007,9 hPa 0,0 l/m² 0 min 0 min 0 W/m² 9,7 km/h (2 Bft) 95,65 %
08.02.2026 05:28 4,3 °C 3,9 °C 0,6 °C 97 % 1007,9 hPa 0,0 l/m² 0 min 0 min 0 W/m² 16,1 km/h (3 Bft) 93,62 %
08.02.2026 05:30 4,3 °C 3,9 °C 0,6 °C 97 % 1007,9 hPa 0,0 l/m² 0 min 0 min 0 W/m² 16,1 km/h (3 Bft) 93,62 %
08.02.2026 05:32 4,3 °C 3,9 °C 0,6 °C 97 % 1007,9 hPa 0,0 l/m² 0 min 0 min 0 W/m² 12,9 km/h (3 Bft) 97,87 %
08.02.2026 05:34 4,3 °C 3,9 °C 0,6 °C 97 % 1007,9 hPa 0,0 l/m² 0 min 0 min 0 W/m² 16,1 km/h (3 Bft) 97,87 %
08.02.2026 05:36 4,4 °C 3,9 °C 0,6 °C 97 % 1007,9 hPa 0,0 l/m² 0 min 0 min 0 W/m² 16,1 km/h (3 Bft) 97,83 %
08.02.2026 05:38 4,3 °C 3,9 °C 0,6 °C 97 % 1007,9 hPa 0,0 l/m² 0 min 0 min 0 W/m² 6,4 km/h (2 Bft) 95,74 %
08.02.2026 05:40 4,4 °C 3,9 °C 0,6 °C 97 % 1007,9 hPa 0,0 l/m² 0 min 0 min 0 W/m² 16,1 km/h (3 Bft) 97,87 %
08.02.2026 05:42 4,4 °C 3,9 °C 0,6 °C 97 % 1007,9 hPa 0,0 l/m² 0 min 0 min 0 W/m² 9,7 km/h (2 Bft) 97,87 %
08.02.2026 05:44 4,4 °C 3,9 °C 0,6 °C 97 % 1007,9 hPa 0,0 l/m² 0 min 0 min 0 W/m² 16,1 km/h (3 Bft) 97,87 %
08.02.2026 05:46 4,4 °C 3,9 °C 0,6 °C 97 % 1007,9 hPa 0,0 l/m² 0 min 0 min 0 W/m² 19,3 km/h (3 Bft) 95,74 %
08.02.2026 05:48 4,4 °C 3,9 °C 0,6 °C 97 % 1007,9 hPa 0,0 l/m² 0 min 0 min 0 W/m² 16,1 km/h (3 Bft) 97,83 %
08.02.2026 05:50 4,4 °C 3,9 °C 0,6 °C 97 % 1007,9 hPa 0,0 l/m² 0 min 0 min 0 W/m² 12,9 km/h (3 Bft) 97,87 %
08.02.2026 05:52 4,4 °C 3,9 °C 0,6 °C 97 % 1007,9 hPa 0,0 l/m² 0 min 0 min 0 W/m² 6,4 km/h (2 Bft) 97,87 %
08.02.2026 05:54 4,4 °C 3,9 °C 0,6 °C 98 % 1007,9 hPa 0,0 l/m² 0 min 0 min 0 W/m² 0,0 km/h (0 Bft) 97,87 %
08.02.2026 05:56 4,4 °C 3,9 °C 0,6 °C 98 % 1007,8 hPa 0,0 l/m² 0 min 0 min 0 W/m² 0,0 km/h (0 Bft) 95,74 %
08.02.2026 05:58 4,4 °C 3,9 °C 0,6 °C 98 % 1007,9 hPa 0,0 l/m² 0 min 0 min 0 W/m² 0,0 km/h (0 Bft) 97,87 %
08.02.2026 06:00 4,4 °C 3,9 °C 0,6 °C 98 % 1007,8 hPa 0,0 l/m² 0 min 0 min 0 W/m² 0,0 km/h (0 Bft) 93,48 %
08.02.2026 06:02 4,4 °C 3,9 °C 0,6 °C 98 % 1007,8 hPa 0,0 l/m² 0 min 0 min 0 W/m² 6,4 km/h (2 Bft) 97,87 %
08.02.2026 06:04 4,4 °C 3,9 °C 0,6 °C 98 % 1007,9 hPa 0,0 l/m² 0 min 0 min 0 W/m² 16,1 km/h (3 Bft) 97,87 %
08.02.2026 06:07 4,4 °C 3,9 °C 0,6 °C 97 % 1007,8 hPa 0,0 l/m² 0 min 0 min 0 W/m² 19,3 km/h (3 Bft) 95,77 %
08.02.2026 06:08 4,4 °C 3,9 °C 0,6 °C 97 % 1007,8 hPa 0,0 l/m² 0 min 0 min 0 W/m² 12,9 km/h (3 Bft) 100,00 %
08.02.2026 06:12 4,4 °C 3,9 °C 0,6 °C 97 % 1007,8 hPa 0,0 l/m² 0 min 0 min 0 W/m² 19,3 km/h (3 Bft) 98,04 %
08.02.2026 06:14 4,4 °C 3,9 °C 0,6 °C 98 % 1007,8 hPa 0,0 l/m² 0 min 0 min 0 W/m² 19,3 km/h (3 Bft) 95,74 %
08.02.2026 06:16 4,4 °C 3,9 °C 0,6 °C 98 % 1007,7 hPa 0,0 l/m² 0 min 0 min 0 W/m² 16,1 km/h (3 Bft) 100,00 %
08.02.2026 06:18 4,4 °C 3,9 °C 0,6 °C 98 % 1007,7 hPa 0,0 l/m² 0 min 0 min 0 W/m² 16,1 km/h (3 Bft) 95,74 %
08.02.2026 06:20 4,4 °C 3,9 °C 0,6 °C 98 % 1007,7 hPa 0,0 l/m² 0 min 0 min 0 W/m² 16,1 km/h (3 Bft) 97,87 %
08.02.2026 06:24 4,4 °C 3,9 °C 0,6 °C 98 % 1007,8 hPa 0,0 l/m² 0 min 0 min 0 W/m² 6,4 km/h (2 Bft) 100,00 %
08.02.2026 06:26 4,4 °C 3,9 °C 0,6 °C 98 % 1007,8 hPa 0,0 l/m² 0 min 0 min 0 W/m² 12,9 km/h (3 Bft) 91,89 %
08.02.2026 06:31 4,5 °C 3,9 °C 0,6 °C 98 % 1007,9 hPa 0,0 l/m² 0 min 0 min 0 W/m² 16,1 km/h (3 Bft) 100,00 %
08.02.2026 06:32 4,5 °C 3,9 °C 0,6 °C 98 % 1007,9 hPa 0,0 l/m² 0 min 0 min 0 W/m² 19,3 km/h (3 Bft) 91,67 %
08.02.2026 06:34 4,5 °C 3,9 °C 0,6 °C 98 % 1007,9 hPa 0,0 l/m² 0 min 0 min 0 W/m² 19,3 km/h (3 Bft) 97,87 %
08.02.2026 06:36 4,5 °C 3,9 °C 0,6 °C 98 % 1007,9 hPa 0,0 l/m² 0 min 0 min 0 W/m² 16,1 km/h (3 Bft) 95,74 %
08.02.2026 06:38 4,5 °C 3,9 °C 0,6 °C 98 % 1008,0 hPa 0,0 l/m² 0 min 0 min 0 W/m² 12,9 km/h (3 Bft) 95,65 %
08.02.2026 06:40 4,5 °C 3,9 °C 0,6 °C 98 % 1008,0 hPa 0,0 l/m² 0 min 0 min 0 W/m² 16,1 km/h (3 Bft) 95,74 %
08.02.2026 06:42 4,6 °C 3,9 °C 0,6 °C 98 % 1008,0 hPa 0,0 l/m² 0 min 0 min 0 W/m² 12,9 km/h (3 Bft) 95,74 %
08.02.2026 06:44 4,5 °C 3,9 °C 0,6 °C 98 % 1008,0 hPa 0,0 l/m² 0 min 0 min 0 W/m² 16,1 km/h (3 Bft) 97,87 %
08.02.2026 06:46 4,6 °C 3,9 °C 0,6 °C 98 % 1008,0 hPa 0,0 l/m² 0 min 0 min 0 W/m² 19,3 km/h (3 Bft) 97,87 %
08.02.2026 06:48 4,6 °C 3,9 °C 0,6 °C 98 % 1008,1 hPa 0,0 l/m² 0 min 0 min 0 W/m² 16,1 km/h (3 Bft) 55,32 %
08.02.2026 06:50 4,6 °C 3,9 °C 0,6 °C 98 % 1008,1 hPa 0,0 l/m² 0 min 0 min 0 W/m² 16,1 km/h (3 Bft) 95,45 %
08.02.2026 06:52 4,6 °C 3,9 °C 0,6 °C 98 % 1008,1 hPa 0,0 l/m² 0 min 0 min 0 W/m² 19,3 km/h (3 Bft) 95,83 %
08.02.2026 06:54 4,6 °C 3,9 °C 0,6 °C 98 % 1008,1 hPa 0,0 l/m² 0 min 0 min 0 W/m² 16,1 km/h (3 Bft) 97,87 %
08.02.2026 06:56 4,6 °C 3,9 °C 0,6 °C 98 % 1008,2 hPa 0,0 l/m² 0 min 0 min 0 W/m² 19,3 km/h (3 Bft) 95,74 %
08.02.2026 06:58 4,6 °C 3,9 °C 0,6 °C 98 % 1008,2 hPa 0,0 l/m² 0 min 0 min 0 W/m² 19,3 km/h (3 Bft) 100,00 %
08.02.2026 07:00 4,6 °C 3,9 °C 0,6 °C 98 % 1008,2 hPa 0,0 l/m² 0 min 0 min 0 W/m² 12,9 km/h (3 Bft) 97,87 %
08.02.2026 07:02 4,6 °C 3,9 °C 0,6 °C 98 % 1008,3 hPa 0,0 l/m² 0 min 0 min 0 W/m² 19,3 km/h (3 Bft) 97,87 %
08.02.2026 07:04 4,6 °C 3,9 °C 0,6 °C 98 % 1008,3 hPa 0,0 l/m² 0 min 0 min 0 W/m² 16,1 km/h (3 Bft) 100,00 %
08.02.2026 07:06 4,6 °C 3,9 °C 0,6 °C 98 % 1008,2 hPa 0,0 l/m² 0 min 0 min 0 W/m² 16,1 km/h (3 Bft) 98,33 %
08.02.2026 07:08 4,6 °C 3,9 °C 0,6 °C 98 % 1008,2 hPa 0,0 l/m² 0 min 0 min 0 W/m² 16,1 km/h (3 Bft) 97,14 %
08.02.2026 07:10 4,6 °C 3,9 °C 0,6 °C 98 % 1008,3 hPa 0,0 l/m² 0 min 0 min 0 W/m² 19,3 km/h (3 Bft) 95,74 %
08.02.2026 07:12 4,6 °C 3,9 °C 0,6 °C 98 % 1008,2 hPa 0,0 l/m² 0 min 0 min 0 W/m² 16,1 km/h (3 Bft) 100,00 %
08.02.2026 07:14 4,6 °C 3,9 °C 0,6 °C 98 % 1008,3 hPa 0,0 l/m² 0 min 0 min 0 W/m² 16,1 km/h (3 Bft) 95,74 %
08.02.2026 07:16 4,6 °C 3,9 °C 0,6 °C 98 % 1008,3 hPa 0,0 l/m² 0 min 0 min 0 W/m² 6,4 km/h (2 Bft) 97,87 %
08.02.2026 07:18 4,6 °C 3,9 °C 0,6 °C 98 % 1008,3 hPa 0,0 l/m² 0 min 0 min 0 W/m² 19,3 km/h (3 Bft) 95,74 %
08.02.2026 07:20 4,6 °C 3,9 °C 0,6 °C 98 % 1008,2 hPa 0,0 l/m² 0 min 0 min 0 W/m² 6,4 km/h (2 Bft) 95,65 %
08.02.2026 07:22 4,6 °C 3,9 °C 0,6 °C 98 % 1008,3 hPa 0,0 l/m² 0 min 0 min 0 W/m² 16,1 km/h (3 Bft) 100,00 %
08.02.2026 07:24 4,6 °C 3,9 °C 0,6 °C 98 % 1008,2 hPa 0,0 l/m² 0 min 0 min 0 W/m² 19,3 km/h (3 Bft) 97,87 %
08.02.2026 07:26 4,6 °C 3,9 °C 0,6 °C 98 % 1008,2 hPa 0,0 l/m² 0 min 0 min 0 W/m² 16,1 km/h (3 Bft) 93,62 %
08.02.2026 07:28 4,6 °C 3,9 °C 0,6 °C 98 % 1008,3 hPa 0,0 l/m² 0 min 0 min 0 W/m² 16,1 km/h (3 Bft) 97,87 %
08.02.2026 07:30 4,6 °C 3,9 °C 0,6 °C 98 % 1008,3 hPa 0,0 l/m² 0 min 0 min 0 W/m² 22,5 km/h (4 Bft) 97,87 %
08.02.2026 07:32 4,5 °C 3,9 °C 0,6 °C 98 % 1008,3 hPa 0,0 l/m² 0 min 0 min 0 W/m² 16,1 km/h (3 Bft) 95,65 %
08.02.2026 07:34 4,5 °C 3,9 °C 0,6 °C 98 % 1008,3 hPa 0,0 l/m² 0 min 0 min 0 W/m² 19,3 km/h (3 Bft) 95,74 %
08.02.2026 07:36 4,5 °C 3,9 °C 0,6 °C 98 % 1008,4 hPa 0,0 l/m² 0 min 0 min 0 W/m² 19,3 km/h (3 Bft) 95,74 %
08.02.2026 07:38 4,5 °C 3,9 °C 0,6 °C 98 % 1008,3 hPa 0,0 l/m² 0 min 0 min 0 W/m² 16,1 km/h (3 Bft) 95,74 %
08.02.2026 07:40 4,5 °C 3,9 °C 0,6 °C 98 % 1008,4 hPa 0,0 l/m² 0 min 0 min 0 W/m² 22,5 km/h (4 Bft) 97,87 %
08.02.2026 07:42 4,5 °C 3,9 °C 0,6 °C 98 % 1008,4 hPa 0,0 l/m² 0 min 0 min 0 W/m² 16,1 km/h (3 Bft) 97,87 %
08.02.2026 07:44 4,5 °C 3,9 °C 0,6 °C 98 % 1008,5 hPa 0,0 l/m² 0 min 0 min 0 W/m² 12,9 km/h (3 Bft) 95,65 %
08.02.2026 07:46 4,5 °C 3,9 °C 0,6 °C 98 % 1008,5 hPa 0,0 l/m² 0 min 0 min 0 W/m² 16,1 km/h (3 Bft) 95,74 %
08.02.2026 07:48 4,5 °C 3,9 °C 0,6 °C 98 % 1008,5 hPa 0,0 l/m² 0 min 0 min 0 W/m² 12,9 km/h (3 Bft) 97,87 %
08.02.2026 07:50 4,5 °C 3,9 °C 0,6 °C 98 % 1008,5 hPa 0,0 l/m² 0 min 0 min 0 W/m² 9,7 km/h (2 Bft) 65,96 %
08.02.2026 07:52 4,5 °C 3,9 °C 0,6 °C 98 % 1008,5 hPa 0,0 l/m² 0 min 0 min 0 W/m² 16,1 km/h (3 Bft) 85,11 %
08.02.2026 07:54 4,5 °C 3,9 °C 0,6 °C 98 % 1008,5 hPa 0,0 l/m² 0 min 0 min 0 W/m² 19,3 km/h (3 Bft) 97,87 %
08.02.2026 07:56 4,5 °C 3,9 °C 0,6 °C 98 % 1008,6 hPa 0,0 l/m² 0 min 0 min 0 W/m² 22,5 km/h (4 Bft) 97,83 %
08.02.2026 07:58 4,5 °C 3,9 °C 0,6 °C 98 % 1008,6 hPa 0,0 l/m² 0 min 0 min 0 W/m² 16,1 km/h (3 Bft) 97,87 %
08.02.2026 08:00 4,5 °C 3,9 °C 1,1 °C 98 % 1008,6 hPa 0,0 l/m² 0 min 0 min 0 W/m² 6,4 km/h (2 Bft) 100,00 %
08.02.2026 08:02 4,5 °C 3,9 °C 1,1 °C 98 % 1008,7 hPa 0,0 l/m² 0 min 0 min 0 W/m² 6,4 km/h (2 Bft) 97,87 %
08.02.2026 08:04 4,5 °C 3,9 °C 1,1 °C 98 % 1008,7 hPa 0,0 l/m² 0 min 0 min 0 W/m² 16,1 km/h (3 Bft) 100,00 %
08.02.2026 08:06 4,5 °C 3,9 °C 1,1 °C 98 % 1008,7 hPa 0,0 l/m² 0 min 0 min 0 W/m² 16,1 km/h (3 Bft) 96,55 %
08.02.2026 08:08 4,5 °C 3,9 °C 1,1 °C 98 % 1008,7 hPa 0,0 l/m² 0 min 0 min 0 W/m² 12,9 km/h (3 Bft) 100,00 %
08.02.2026 08:10 4,5 °C 3,9 °C 1,1 °C 98 % 1008,8 hPa 0,0 l/m² 0 min 0 min 0 W/m² 16,1 km/h (3 Bft) 97,87 %
08.02.2026 08:12 4,5 °C 3,9 °C 1,1 °C 98 % 1008,7 hPa 0,0 l/m² 0 min 0 min 0 W/m² 12,9 km/h (3 Bft) 100,00 %
08.02.2026 08:14 4,5 °C 3,9 °C 1,1 °C 98 % 1008,8 hPa 0,0 l/m² 0 min 0 min 0 W/m² 6,4 km/h (2 Bft) 100,00 %
08.02.2026 08:16 4,6 °C 3,9 °C 1,1 °C 98 % 1008,8 hPa 0,0 l/m² 0 min 0 min 0 W/m² 9,7 km/h (2 Bft) 97,87 %
08.02.2026 08:18 4,6 °C 3,9 °C 1,1 °C 98 % 1008,8 hPa 0,0 l/m² 0 min 0 min 5 W/m² 12,9 km/h (3 Bft) 97,87 %
08.02.2026 08:20 4,6 °C 3,9 °C 1,1 °C 98 % 1008,9 hPa 0,0 l/m² 0 min 0 min 5 W/m² 6,4 km/h (2 Bft) 97,83 %
08.02.2026 08:22 4,6 °C 3,9 °C 1,1 °C 98 % 1008,8 hPa 0,0 l/m² 0 min 0 min 5 W/m² 16,1 km/h (3 Bft) 97,87 %
08.02.2026 08:24 4,6 °C 4,4 °C 1,1 °C 98 % 1008,9 hPa 0,0 l/m² 0 min 0 min 7 W/m² 12,9 km/h (3 Bft) 95,74 %
08.02.2026 08:26 4,6 °C 4,4 °C 1,1 °C 98 % 1008,9 hPa 0,0 l/m² 0 min 0 min 7 W/m² 12,9 km/h (3 Bft) 91,49 %
08.02.2026 08:28 4,6 °C 4,4 °C 1,1 °C 98 % 1008,9 hPa 0,0 l/m² 0 min 0 min 7 W/m² 16,1 km/h (3 Bft) 95,74 %
08.02.2026 08:30 4,6 °C 4,4 °C 1,1 °C 98 % 1008,9 hPa 0,0 l/m² 0 min 0 min 8 W/m² 19,3 km/h (3 Bft) 95,74 %
08.02.2026 08:32 4,6 °C 4,4 °C 1,1 °C 98 % 1008,9 hPa 0,0 l/m² 0 min 0 min 10 W/m² 19,3 km/h (3 Bft) 95,65 %
08.02.2026 08:34 4,6 °C 4,4 °C 1,1 °C 98 % 1008,9 hPa 0,0 l/m² 0 min 0 min 11 W/m² 12,9 km/h (3 Bft) 93,62 %
08.02.2026 08:36 4,6 °C 4,4 °C 1,1 °C 98 % 1009,0 hPa 0,0 l/m² 0 min 0 min 12 W/m² 12,9 km/h (3 Bft) 95,74 %
08.02.2026 08:38 4,6 °C 4,4 °C 1,1 °C 98 % 1009,0 hPa 0,0 l/m² 0 min 0 min 12 W/m² 12,9 km/h (3 Bft) 91,49 %
08.02.2026 08:40 4,6 °C 4,4 °C 1,1 °C 98 % 1009,0 hPa 0,0 l/m² 0 min 0 min 11 W/m² 19,3 km/h (3 Bft) 95,74 %
08.02.2026 08:42 4,6 °C 4,4 °C 1,1 °C 98 % 1009,0 hPa 0,0 l/m² 0 min 0 min 13 W/m² 6,4 km/h (2 Bft) 93,62 %
08.02.2026 08:44 4,6 °C 4,4 °C 1,1 °C 99 % 1009,0 hPa 0,0 l/m² 0 min 0 min 15 W/m² 16,1 km/h (3 Bft) 93,48 %
08.02.2026 08:46 4,7 °C 4,4 °C 1,1 °C 99 % 1009,0 hPa 0,0 l/m² 0 min 0 min 18 W/m² 22,5 km/h (4 Bft) 95,74 %
08.02.2026 08:48 4,7 °C 4,4 °C 1,1 °C 99 % 1009,0 hPa 0,0 l/m² 0 min 0 min 17 W/m² 19,3 km/h (3 Bft) 95,74 %
08.02.2026 08:50 4,7 °C 4,4 °C 1,1 °C 99 % 1009,0 hPa 0,0 l/m² 0 min 0 min 18 W/m² 12,9 km/h (3 Bft) 95,74 %
08.02.2026 08:52 4,7 °C 4,4 °C 1,1 °C 99 % 1009,0 hPa 0,0 l/m² 0 min 0 min 19 W/m² 12,9 km/h (3 Bft) 93,62 %
08.02.2026 08:54 4,7 °C 4,4 °C 1,1 °C 99 % 1009,0 hPa 0,0 l/m² 0 min 0 min 18 W/m² 12,9 km/h (3 Bft) 95,65 %
08.02.2026 08:56 4,7 °C 4,4 °C 1,1 °C 99 % 1009,1 hPa 0,0 l/m² 0 min 0 min 17 W/m² 16,1 km/h (3 Bft) 97,87 %
08.02.2026 08:58 4,7 °C 4,4 °C 1,1 °C 99 % 1009,1 hPa 0,0 l/m² 0 min 0 min 13 W/m² 12,9 km/h (3 Bft) 97,87 %
08.02.2026 09:00 4,7 °C 4,4 °C 1,1 °C 99 % 1009,1 hPa 0,0 l/m² 0 min 0 min 12 W/m² 6,4 km/h (2 Bft) 95,74 %
08.02.2026 09:02 4,7 °C 4,4 °C 1,1 °C 99 % 1009,2 hPa 0,0 l/m² 0 min 0 min 13 W/m² 12,9 km/h (3 Bft) 97,87 %
08.02.2026 09:04 4,8 °C 4,4 °C 1,1 °C 99 % 1009,2 hPa 0,0 l/m² 0 min 0 min 12 W/m² 12,9 km/h (3 Bft) 97,87 %
08.02.2026 09:06 4,8 °C 4,4 °C 1,1 °C 99 % 1009,2 hPa 0,0 l/m² 0 min 0 min 12 W/m² 12,9 km/h (3 Bft) 96,61 %
08.02.2026 09:08 4,8 °C 4,4 °C 1,1 °C 99 % 1009,2 hPa 0,0 l/m² 0 min 0 min 14 W/m² 12,9 km/h (3 Bft) 97,22 %
08.02.2026 09:10 4,8 °C 4,4 °C 1,1 °C 99 % 1009,2 hPa 0,0 l/m² 0 min 0 min 14 W/m² 16,1 km/h (3 Bft) 97,87 %
08.02.2026 09:12 4,8 °C 4,4 °C 1,1 °C 99 % 1009,1 hPa 0,0 l/m² 0 min 0 min 15 W/m² 6,4 km/h (2 Bft) 97,87 %
08.02.2026 09:14 4,8 °C 4,4 °C 1,1 °C 99 % 1009,2 hPa 0,0 l/m² 0 min 0 min 16 W/m² 16,1 km/h (3 Bft) 100,00 %
08.02.2026 09:16 4,8 °C 4,4 °C 1,1 °C 99 % 1009,2 hPa 0,0 l/m² 0 min 0 min 15 W/m² 6,4 km/h (2 Bft) 100,00 %
08.02.2026 09:18 4,8 °C 4,4 °C 1,1 °C 99 % 1009,2 hPa 0,0 l/m² 0 min 0 min 16 W/m² 16,1 km/h (3 Bft) 100,00 %
08.02.2026 09:20 4,8 °C 4,4 °C 1,1 °C 99 % 1009,1 hPa 0,0 l/m² 0 min 0 min 18 W/m² 16,1 km/h (3 Bft) 97,87 %
08.02.2026 09:22 4,8 °C 4,4 °C 1,1 °C 99 % 1009,1 hPa 0,2 l/m² 0 min 0 min 22 W/m² 22,5 km/h (4 Bft) 97,87 %
08.02.2026 09:24 4,8 °C 4,4 °C 1,7 °C 99 % 1009,1 hPa 0,0 l/m² 0 min 0 min 23 W/m² 16,1 km/h (3 Bft) 100,00 %
08.02.2026 09:26 4,9 °C 4,4 °C 1,7 °C 99 % 1009,1 hPa 0,0 l/m² 0 min 0 min 29 W/m² 12,9 km/h (3 Bft) 100,00 %
08.02.2026 09:28 4,9 °C 4,4 °C 1,7 °C 99 % 1009,1 hPa 0,0 l/m² 0 min 0 min 32 W/m² 16,1 km/h (3 Bft) 95,74 %
08.02.2026 09:30 4,9 °C 5,0 °C 1,7 °C 99 % 1009,1 hPa 0,0 l/m² 0 min 0 min 31 W/m² 6,4 km/h (2 Bft) 100,00 %
08.02.2026 09:32 4,9 °C 5,0 °C 1,7 °C 99 % 1009,1 hPa 0,0 l/m² 0 min 0 min 35 W/m² 25,7 km/h (4 Bft) 100,00 %
08.02.2026 09:34 4,9 °C 5,0 °C 1,7 °C 99 % 1009,1 hPa 0,0 l/m² 0 min 0 min 42 W/m² 25,7 km/h (4 Bft) 100,00 %
08.02.2026 09:36 4,9 °C 5,0 °C 1,7 °C 99 % 1009,2 hPa 0,0 l/m² 0 min 0 min 43 W/m² 16,1 km/h (3 Bft) 97,87 %
08.02.2026 09:38 4,9 °C 5,0 °C 1,7 °C 99 % 1009,1 hPa 0,0 l/m² 0 min 0 min 39 W/m² 19,3 km/h (3 Bft) 97,87 %
08.02.2026 09:40 4,9 °C 5,0 °C 1,7 °C 99 % 1009,1 hPa 0,0 l/m² 0 min 0 min 37 W/m² 12,9 km/h (3 Bft) 100,00 %
08.02.2026 09:42 4,9 °C 5,0 °C 1,7 °C 99 % 1009,2 hPa 0,0 l/m² 0 min 0 min 38 W/m² 12,9 km/h (3 Bft) 95,65 %
08.02.2026 09:44 4,9 °C 5,0 °C 1,7 °C 99 % 1009,2 hPa 0,0 l/m² 0 min 0 min 42 W/m² 9,7 km/h (2 Bft) 97,87 %
08.02.2026 09:46 5,0 °C 5,0 °C 1,7 °C 99 % 1009,2 hPa 0,0 l/m² 0 min 0 min 44 W/m² 12,9 km/h (3 Bft) 95,74 %
08.02.2026 09:48 5,0 °C 5,0 °C 1,7 °C 99 % 1009,2 hPa 0,0 l/m² 0 min 0 min 42 W/m² 12,9 km/h (3 Bft) 97,87 %
08.02.2026 09:50 5,0 °C 5,0 °C 1,7 °C 99 % 1009,2 hPa 0,0 l/m² 0 min 0 min 44 W/m² 12,9 km/h (3 Bft) 95,74 %
08.02.2026 09:52 5,0 °C 5,0 °C 1,7 °C 99 % 1009,2 hPa 0,0 l/m² 0 min 0 min 50 W/m² 12,9 km/h (3 Bft) 97,83 %
08.02.2026 09:54 5,1 °C 5,0 °C 1,7 °C 99 % 1009,3 hPa 0,0 l/m² 0 min 0 min 56 W/m² 6,4 km/h (2 Bft) 97,87 %
08.02.2026 09:56 5,1 °C 5,0 °C 1,7 °C 99 % 1009,3 hPa 0,0 l/m² 0 min 0 min 56 W/m² 12,9 km/h (3 Bft) 97,87 %
08.02.2026 09:58 5,1 °C 5,0 °C 1,7 °C 99 % 1009,3 hPa 0,0 l/m² 0 min 0 min 58 W/m² 6,4 km/h (2 Bft) 95,74 %
08.02.2026 10:00 5,1 °C 5,0 °C 1,7 °C 99 % 1009,2 hPa 0,0 l/m² 0 min 0 min 63 W/m² 16,1 km/h (3 Bft) 95,74 %
08.02.2026 10:02 5,1 °C 5,0 °C 1,7 °C 99 % 1009,2 hPa 0,0 l/m² 0 min 0 min 65 W/m² 12,9 km/h (3 Bft) 93,62 %
08.02.2026 10:04 5,1 °C 5,0 °C 1,7 °C 99 % 1009,3 hPa 0,0 l/m² 0 min 0 min 66 W/m² 16,1 km/h (3 Bft) 97,87 %
08.02.2026 10:06 5,1 °C 5,0 °C 1,7 °C 99 % 1009,3 hPa 0,0 l/m² 0 min 0 min 65 W/m² 12,9 km/h (3 Bft) 97,83 %
08.02.2026 10:08 5,1 °C 5,0 °C 1,7 °C 99 % 1009,3 hPa 0,0 l/m² 0 min 0 min 62 W/m² 19,3 km/h (3 Bft) 97,92 %
08.02.2026 10:10 5,2 °C 5,0 °C 1,7 °C 99 % 1009,3 hPa 0,0 l/m² 0 min 0 min 64 W/m² 22,5 km/h (4 Bft) 93,62 %
08.02.2026 10:12 5,2 °C 5,0 °C 1,7 °C 99 % 1009,3 hPa 0,0 l/m² 0 min 0 min 67 W/m² 16,1 km/h (3 Bft) 95,74 %
08.02.2026 10:14 5,2 °C 5,6 °C 1,7 °C 99 % 1009,3 hPa 0,0 l/m² 0 min 0 min 68 W/m² 16,1 km/h (3 Bft) 95,74 %
08.02.2026 10:16 5,2 °C 5,6 °C 1,7 °C 99 % 1009,3 hPa 0,0 l/m² 0 min 0 min 72 W/m² 16,1 km/h (3 Bft) 95,65 %
08.02.2026 10:18 5,2 °C 5,6 °C 2,2 °C 99 % 1009,3 hPa 0,0 l/m² 0 min 0 min 75 W/m² 12,9 km/h (3 Bft) 95,74 %
08.02.2026 10:20 5,2 °C 5,6 °C 2,2 °C 99 % 1009,3 hPa 0,0 l/m² 0 min 0 min 76 W/m² 9,7 km/h (2 Bft) 95,74 %
08.02.2026 10:22 5,2 °C 5,6 °C 2,2 °C 99 % 1009,3 hPa 0,0 l/m² 0 min 0 min 76 W/m² 6,4 km/h (2 Bft) 93,62 %
08.02.2026 10:24 5,3 °C 5,6 °C 2,2 °C 99 % 1009,4 hPa 0,0 l/m² 0 min 0 min 74 W/m² 6,4 km/h (2 Bft) 93,62 %
08.02.2026 10:26 5,3 °C 5,6 °C 2,2 °C 99 % 1009,4 hPa 0,0 l/m² 0 min 0 min 74 W/m² 19,3 km/h (3 Bft) 97,87 %
08.02.2026 10:28 5,3 °C 5,6 °C 2,2 °C 99 % 1009,4 hPa 0,0 l/m² 0 min 0 min 75 W/m² 9,7 km/h (2 Bft) 97,83 %
08.02.2026 10:30 5,3 °C 5,6 °C 2,2 °C 99 % 1009,4 hPa 0,0 l/m² 0 min 0 min 76 W/m² 6,4 km/h (2 Bft) 97,87 %
08.02.2026 10:32 5,3 °C 5,6 °C 2,2 °C 99 % 1009,5 hPa 0,0 l/m² 0 min 0 min 84 W/m² 12,9 km/h (3 Bft) 97,87 %
08.02.2026 10:34 5,4 °C 5,6 °C 2,2 °C 99 % 1009,5 hPa 0,0 l/m² 0 min 0 min 84 W/m² 12,9 km/h (3 Bft) 97,87 %
08.02.2026 10:36 5,4 °C 5,6 °C 2,2 °C 99 % 1009,5 hPa 0,0 l/m² 0 min 0 min 88 W/m² 16,1 km/h (3 Bft) 97,87 %
08.02.2026 10:38 5,4 °C 5,6 °C 2,2 °C 99 % 1009,5 hPa 0,0 l/m² 0 min 0 min 90 W/m² 25,7 km/h (4 Bft) 95,74 %
08.02.2026 10:40 5,4 °C 5,6 °C 2,2 °C 99 % 1009,5 hPa 0,0 l/m² 0 min 0 min 89 W/m² 16,1 km/h (3 Bft) 100,00 %
08.02.2026 10:42 5,4 °C 5,6 °C 2,2 °C 99 % 1009,5 hPa 0,0 l/m² 0 min 0 min 88 W/m² 16,1 km/h (3 Bft) 97,87 %
08.02.2026 10:44 5,4 °C 5,6 °C 2,2 °C 99 % 1009,5 hPa 0,0 l/m² 0 min 0 min 88 W/m² 12,9 km/h (3 Bft) 97,87 %
08.02.2026 10:46 5,4 °C 5,6 °C 2,2 °C 99 % 1009,5 hPa 0,0 l/m² 0 min 0 min 94 W/m² 12,9 km/h (3 Bft) 100,00 %
08.02.2026 10:48 5,4 °C 5,6 °C 2,2 °C 99 % 1009,5 hPa 0,0 l/m² 0 min 0 min 91 W/m² 12,9 km/h (3 Bft) 100,00 %
08.02.2026 10:50 5,4 °C 5,6 °C 2,2 °C 99 % 1009,5 hPa 0,0 l/m² 0 min 0 min 90 W/m² 16,1 km/h (3 Bft) 100,00 %
08.02.2026 10:52 5,4 °C 5,6 °C 2,2 °C 99 % 1009,5 hPa 0,0 l/m² 0 min 0 min 91 W/m² 12,9 km/h (3 Bft) 100,00 %
08.02.2026 10:54 5,4 °C 5,6 °C 2,2 °C 99 % 1009,5 hPa 0,0 l/m² 0 min 0 min 92 W/m² 6,4 km/h (2 Bft) 100,00 %
08.02.2026 10:56 5,5 °C 6,1 °C 2,2 °C 99 % 1009,5 hPa 0,0 l/m² 0 min 0 min 94 W/m² 12,9 km/h (3 Bft) 100,00 %
08.02.2026 10:58 5,5 °C 5,6 °C 2,2 °C 99 % 1009,5 hPa 0,0 l/m² 0 min 0 min 86 W/m² 12,9 km/h (3 Bft) 97,87 %
08.02.2026 11:00 5,5 °C 5,6 °C 2,2 °C 99 % 1009,6 hPa 0,0 l/m² 0 min 0 min 89 W/m² 16,1 km/h (3 Bft) 100,00 %
08.02.2026 11:02 5,5 °C 5,6 °C 2,2 °C 99 % 1009,5 hPa 0,0 l/m² 0 min 0 min 94 W/m² 16,1 km/h (3 Bft) 100,00 %
08.02.2026 11:04 5,6 °C 5,6 °C 2,2 °C 99 % 1009,6 hPa 0,0 l/m² 0 min 0 min 93 W/m² 16,1 km/h (3 Bft) 100,00 %
08.02.2026 11:06 5,6 °C 6,1 °C 2,2 °C 99 % 1009,6 hPa 0,0 l/m² 0 min 0 min 91 W/m² 16,1 km/h (3 Bft) 100,00 %
08.02.2026 11:08 5,6 °C 5,6 °C 2,2 °C 99 % 1009,6 hPa 0,0 l/m² 0 min 0 min 91 W/m² 12,9 km/h (3 Bft) 100,00 %
08.02.2026 11:10 5,6 °C 5,6 °C 2,2 °C 99 % 1009,6 hPa 0,0 l/m² 0 min 0 min 95 W/m² 12,9 km/h (3 Bft) 97,87 %
08.02.2026 11:12 5,6 °C 5,6 °C 2,2 °C 99 % 1009,6 hPa 0,0 l/m² 0 min 0 min 96 W/m² 12,9 km/h (3 Bft) 100,00 %
08.02.2026 11:14 5,6 °C 5,6 °C 2,2 °C 99 % 1009,7 hPa 0,0 l/m² 0 min 0 min 91 W/m² 12,9 km/h (3 Bft) 97,83 %
08.02.2026 11:16 5,6 °C 6,1 °C 2,2 °C 99 % 1009,6 hPa 0,0 l/m² 0 min 0 min 95 W/m² 12,9 km/h (3 Bft) 97,87 %
08.02.2026 11:18 5,6 °C 5,6 °C 2,2 °C 99 % 1009,6 hPa 0,0 l/m² 0 min 0 min 101 W/m² 16,1 km/h (3 Bft) 97,87 %
08.02.2026 11:20 5,6 °C 5,6 °C 2,2 °C 99 % 1009,6 hPa 0,0 l/m² 0 min 0 min 110 W/m² 12,9 km/h (3 Bft) 93,62 %
08.02.2026 11:22 5,6 °C 5,6 °C 2,2 °C 98 % 1009,6 hPa 0,0 l/m² 0 min 0 min 111 W/m² 19,3 km/h (3 Bft) 97,87 %
08.02.2026 11:24 5,6 °C 5,6 °C 2,2 °C 98 % 1009,6 hPa 0,0 l/m² 0 min 0 min 106 W/m² 12,9 km/h (3 Bft) 95,74 %
08.02.2026 11:26 5,6 °C 5,6 °C 2,2 °C 98 % 1009,6 hPa 0,0 l/m² 0 min 0 min 102 W/m² 9,7 km/h (2 Bft) 93,48 %
08.02.2026 11:28 5,6 °C 5,6 °C 2,2 °C 98 % 1009,6 hPa 0,0 l/m² 0 min 0 min 106 W/m² 12,9 km/h (3 Bft) 97,87 %
08.02.2026 11:30 5,6 °C 6,1 °C 2,2 °C 98 % 1009,6 hPa 0,0 l/m² 0 min 0 min 114 W/m² 16,1 km/h (3 Bft) 97,87 %
08.02.2026 11:32 5,6 °C 6,1 °C 2,2 °C 98 % 1009,6 hPa 0,0 l/m² 0 min 0 min 116 W/m² 16,1 km/h (3 Bft) 97,87 %
08.02.2026 11:34 5,6 °C 6,1 °C 2,2 °C 98 % 1009,6 hPa 0,0 l/m² 0 min 0 min 112 W/m² 19,3 km/h (3 Bft) 93,62 %
08.02.2026 11:36 5,6 °C 5,6 °C 2,2 °C 98 % 1009,6 hPa 0,0 l/m² 0 min 0 min 107 W/m² 19,3 km/h (3 Bft) 95,74 %
08.02.2026 11:38 5,6 °C 5,6 °C 2,2 °C 98 % 1009,6 hPa 0,0 l/m² 0 min 0 min 106 W/m² 19,3 km/h (3 Bft) 97,83 %
08.02.2026 11:40 5,6 °C 5,6 °C 2,2 °C 98 % 1009,6 hPa 0,0 l/m² 0 min 0 min 109 W/m² 16,1 km/h (3 Bft) 95,74 %
08.02.2026 11:42 5,6 °C 6,1 °C 2,2 °C 98 % 1009,7 hPa 0,0 l/m² 0 min 0 min 111 W/m² 9,7 km/h (2 Bft) 97,87 %
08.02.2026 11:44 5,6 °C 6,1 °C 2,2 °C 98 % 1009,7 hPa 0,0 l/m² 0 min 0 min 113 W/m² 12,9 km/h (3 Bft) 95,74 %
08.02.2026 11:46 5,6 °C 6,1 °C 2,2 °C 98 % 1009,7 hPa 0,0 l/m² 0 min 0 min 117 W/m² 6,4 km/h (2 Bft) 97,87 %
08.02.2026 11:48 5,6 °C 6,1 °C 2,2 °C 98 % 1009,7 hPa 0,0 l/m² 0 min 0 min 115 W/m² 16,1 km/h (3 Bft) 97,83 %
08.02.2026 11:50 5,6 °C 6,1 °C 2,2 °C 98 % 1009,6 hPa 0,0 l/m² 0 min 0 min 115 W/m² 16,1 km/h (3 Bft) 97,87 %
08.02.2026 11:52 5,6 °C 6,1 °C 2,8 °C 98 % 1009,6 hPa 0,0 l/m² 0 min 0 min 114 W/m² 6,4 km/h (2 Bft) 97,87 %
08.02.2026 11:54 5,7 °C 6,1 °C 2,8 °C 98 % 1009,6 hPa 0,0 l/m² 0 min 0 min 118 W/m² 6,4 km/h (2 Bft) 97,87 %
08.02.2026 11:56 5,7 °C 6,1 °C 2,8 °C 98 % 1009,7 hPa 0,0 l/m² 0 min 0 min 117 W/m² 16,1 km/h (3 Bft) 97,87 %
08.02.2026 11:58 5,7 °C 6,1 °C 2,8 °C 98 % 1009,7 hPa 0,0 l/m² 0 min 0 min 116 W/m² 6,4 km/h (2 Bft) 97,87 %
08.02.2026 12:00 5,7 °C 6,1 °C 2,8 °C 98 % 1009,7 hPa 0,0 l/m² 0 min 0 min 114 W/m² 6,4 km/h (2 Bft) 97,83 %
08.02.2026 12:02 5,7 °C 6,1 °C 2,8 °C 98 % 1009,6 hPa 0,0 l/m² 0 min 0 min 115 W/m² 6,4 km/h (2 Bft) 97,87 %
08.02.2026 12:04 5,8 °C 6,1 °C 2,8 °C 98 % 1009,7 hPa 0,0 l/m² 0 min 0 min 115 W/m² 9,7 km/h (2 Bft) 100,00 %
08.02.2026 12:08 5,8 °C 6,1 °C 2,8 °C 98 % 1009,7 hPa 0,0 l/m² 0 min 0 min 121 W/m² 16,1 km/h (3 Bft) 100,00 %
08.02.2026 12:10 5,8 °C 6,1 °C 2,8 °C 98 % 1009,7 hPa 0,0 l/m² 0 min 0 min 123 W/m² 16,1 km/h (3 Bft) 97,87 %
08.02.2026 12:12 5,8 °C 6,1 °C 2,8 °C 98 % 1009,7 hPa 0,0 l/m² 0 min 0 min 122 W/m² 12,9 km/h (3 Bft) 100,00 %
08.02.2026 12:14 5,8 °C 6,1 °C 2,8 °C 98 % 1009,7 hPa 0,0 l/m² 0 min 0 min 122 W/m² 12,9 km/h (3 Bft) 95,74 %
08.02.2026 12:16 5,8 °C 6,1 °C 2,8 °C 98 % 1009,7 hPa 0,0 l/m² 0 min 0 min 116 W/m² 6,4 km/h (2 Bft) 97,87 %
08.02.2026 12:18 5,8 °C 6,1 °C 2,8 °C 98 % 1009,7 hPa 0,0 l/m² 0 min 0 min 121 W/m² 6,4 km/h (2 Bft) 97,87 %
08.02.2026 12:20 5,8 °C 6,1 °C 2,8 °C 98 % 1009,7 hPa 0,0 l/m² 0 min 0 min 119 W/m² 6,4 km/h (2 Bft) 97,87 %
08.02.2026 12:22 5,8 °C 6,1 °C 2,8 °C 98 % 1009,7 hPa 0,0 l/m² 0 min 0 min 117 W/m² 9,7 km/h (2 Bft) 97,87 %
08.02.2026 12:24 5,8 °C 6,1 °C 2,8 °C 98 % 1009,7 hPa 0,0 l/m² 0 min 0 min 113 W/m² 12,9 km/h (3 Bft) 93,48 %
08.02.2026 12:26 5,8 °C 6,1 °C 2,8 °C 98 % 1009,7 hPa 0,0 l/m² 0 min 0 min 118 W/m² 12,9 km/h (3 Bft) 95,74 %
08.02.2026 12:28 5,8 °C 6,1 °C 2,8 °C 98 % 1009,7 hPa 0,0 l/m² 0 min 0 min 120 W/m² 6,4 km/h (2 Bft) 95,74 %
08.02.2026 12:30 5,8 °C 6,1 °C 2,8 °C 98 % 1009,6 hPa 0,0 l/m² 0 min 0 min 124 W/m² 9,7 km/h (2 Bft) 36,36 %
08.02.2026 12:32 5,8 °C 6,1 °C 2,8 °C 98 % 1009,6 hPa 0,0 l/m² 0 min 0 min 134 W/m² 12,9 km/h (3 Bft) 95,74 %
08.02.2026 12:34 5,9 °C 6,1 °C 2,8 °C 98 % 1009,6 hPa 0,0 l/m² 0 min 0 min 136 W/m² 25,7 km/h (4 Bft) 95,74 %
08.02.2026 12:36 5,9 °C 6,1 °C 2,8 °C 98 % 1009,5 hPa 0,0 l/m² 0 min 0 min 144 W/m² 16,1 km/h (3 Bft) 95,65 %
08.02.2026 12:38 5,8 °C 6,1 °C 2,8 °C 98 % 1009,5 hPa 0,0 l/m² 0 min 0 min 152 W/m² 16,1 km/h (3 Bft) 93,62 %
08.02.2026 12:40 5,8 °C 6,1 °C 2,8 °C 98 % 1009,5 hPa 0,0 l/m² 0 min 0 min 145 W/m² 12,9 km/h (3 Bft) 95,74 %
08.02.2026 12:42 5,8 °C 6,1 °C 2,8 °C 98 % 1009,5 hPa 0,0 l/m² 0 min 0 min 152 W/m² 12,9 km/h (3 Bft) 95,74 %
08.02.2026 12:44 5,8 °C 6,1 °C 2,8 °C 97 % 1009,6 hPa 0,0 l/m² 0 min 0 min 149 W/m² 16,1 km/h (3 Bft) 95,74 %
08.02.2026 12:46 5,8 °C 6,1 °C 2,8 °C 97 % 1009,5 hPa 0,0 l/m² 0 min 0 min 142 W/m² 16,1 km/h (3 Bft) 95,65 %
08.02.2026 12:48 5,8 °C 6,1 °C 2,8 °C 97 % 1009,5 hPa 0,0 l/m² 0 min 0 min 132 W/m² 12,9 km/h (3 Bft) 95,74 %
08.02.2026 12:50 5,8 °C 6,1 °C 2,8 °C 97 % 1009,4 hPa 0,0 l/m² 0 min 0 min 132 W/m² 12,9 km/h (3 Bft) 93,62 %
08.02.2026 12:52 5,8 °C 6,7 °C 2,8 °C 97 % 1009,5 hPa 0,0 l/m² 0 min 0 min 133 W/m² 6,4 km/h (2 Bft) 97,87 %
08.02.2026 12:54 5,8 °C 6,7 °C 2,8 °C 97 % 1009,5 hPa 0,0 l/m² 0 min 0 min 129 W/m² 12,9 km/h (3 Bft) 95,74 %
08.02.2026 12:56 5,9 °C 6,7 °C 2,8 °C 97 % 1009,4 hPa 0,0 l/m² 0 min 0 min 131 W/m² 12,9 km/h (3 Bft) 93,62 %
08.02.2026 12:58 5,9 °C 6,1 °C 2,8 °C 97 % 1009,4 hPa 0,0 l/m² 0 min 0 min 129 W/m² 16,1 km/h (3 Bft) 95,65 %
08.02.2026 13:00 5,9 °C 6,7 °C 2,8 °C 97 % 1009,4 hPa 0,0 l/m² 0 min 0 min 128 W/m² 6,4 km/h (2 Bft) 97,87 %
08.02.2026 13:02 6,0 °C 6,7 °C 2,8 °C 97 % 1009,4 hPa 0,0 l/m² 0 min 0 min 126 W/m² 12,9 km/h (3 Bft) 97,87 %
08.02.2026 13:04 6,0 °C 6,7 °C 2,8 °C 97 % 1009,3 hPa 0,0 l/m² 0 min 0 min 126 W/m² 12,9 km/h (3 Bft) 97,87 %
08.02.2026 13:06 6,1 °C 6,7 °C 2,8 °C 97 % 1009,4 hPa 0,0 l/m² 0 min 0 min 126 W/m² 12,9 km/h (3 Bft) 97,87 %
08.02.2026 13:08 6,1 °C 6,7 °C 2,8 °C 97 % 1009,4 hPa 0,0 l/m² 0 min 0 min 126 W/m² 12,9 km/h (3 Bft) 97,96 %
08.02.2026 13:10 6,1 °C 6,1 °C 2,8 °C 97 % 1009,4 hPa 0,0 l/m² 0 min 0 min 128 W/m² 16,1 km/h (3 Bft) 100,00 %
08.02.2026 13:12 6,1 °C 6,7 °C 2,8 °C 97 % 1009,3 hPa 0,0 l/m² 0 min 0 min 125 W/m² 12,9 km/h (3 Bft) 100,00 %
08.02.2026 13:14 6,1 °C 6,7 °C 2,8 °C 96 % 1009,3 hPa 0,0 l/m² 0 min 0 min 120 W/m² 12,9 km/h (3 Bft) 100,00 %
08.02.2026 13:16 6,1 °C 6,7 °C 2,8 °C 96 % 1009,3 hPa 0,0 l/m² 0 min 0 min 120 W/m² 12,9 km/h (3 Bft) 100,00 %
08.02.2026 13:18 6,1 °C 6,7 °C 2,8 °C 96 % 1009,4 hPa 0,0 l/m² 0 min 0 min 120 W/m² 12,9 km/h (3 Bft) 100,00 %
08.02.2026 13:20 6,1 °C 6,1 °C 2,8 °C 96 % 1009,4 hPa 0,0 l/m² 0 min 0 min 122 W/m² 19,3 km/h (3 Bft) 97,87 %
08.02.2026 13:22 6,1 °C 6,1 °C 2,8 °C 96 % 1009,4 hPa 0,0 l/m² 0 min 0 min 122 W/m² 12,9 km/h (3 Bft) 97,83 %
08.02.2026 13:24 6,1 °C 6,7 °C 2,8 °C 96 % 1009,4 hPa 0,0 l/m² 0 min 0 min 125 W/m² 12,9 km/h (3 Bft) 95,74 %
08.02.2026 13:26 6,1 °C 6,7 °C 2,8 °C 96 % 1009,5 hPa 0,0 l/m² 0 min 0 min 129 W/m² 12,9 km/h (3 Bft) 95,74 %
08.02.2026 13:28 6,2 °C 6,7 °C 2,8 °C 96 % 1009,4 hPa 0,0 l/m² 0 min 0 min 121 W/m² 12,9 km/h (3 Bft) 97,87 %
08.02.2026 13:30 6,2 °C 6,7 °C 2,8 °C 96 % 1009,4 hPa 0,0 l/m² 0 min 0 min 120 W/m² 12,9 km/h (3 Bft) 100,00 %
08.02.2026 13:32 6,2 °C 6,7 °C 2,8 °C 96 % 1009,5 hPa 0,0 l/m² 0 min 0 min 123 W/m² 12,9 km/h (3 Bft) 95,74 %
08.02.2026 13:34 6,3 °C 6,7 °C 3,3 °C 96 % 1009,4 hPa 0,0 l/m² 0 min 0 min 128 W/m² 9,7 km/h (2 Bft) 100,00 %
08.02.2026 13:36 6,3 °C 6,7 °C 3,3 °C 96 % 1009,4 hPa 0,0 l/m² 0 min 0 min 131 W/m² 12,9 km/h (3 Bft) 100,00 %
08.02.2026 13:38 6,3 °C 6,7 °C 2,8 °C 96 % 1009,5 hPa 0,0 l/m² 0 min 0 min 124 W/m² 16,1 km/h (3 Bft) 100,00 %
08.02.2026 13:40 6,3 °C 6,7 °C 2,8 °C 96 % 1009,4 hPa 0,0 l/m² 0 min 0 min 119 W/m² 12,9 km/h (3 Bft) 100,00 %
08.02.2026 13:42 6,3 °C 6,7 °C 2,8 °C 96 % 1009,4 hPa 0,0 l/m² 0 min 0 min 121 W/m² 16,1 km/h (3 Bft) 97,87 %
08.02.2026 13:44 6,3 °C 6,7 °C 2,8 °C 96 % 1009,4 hPa 0,0 l/m² 0 min 0 min 118 W/m² 16,1 km/h (3 Bft) 100,00 %
08.02.2026 13:46 6,4 °C 6,7 °C 2,8 °C 96 % 1009,4 hPa 0,0 l/m² 0 min 0 min 117 W/m² 9,7 km/h (2 Bft) 97,83 %
08.02.2026 13:48 6,4 °C 6,7 °C 3,3 °C 96 % 1009,4 hPa 0,0 l/m² 0 min 0 min 120 W/m² 12,9 km/h (3 Bft) 100,00 %
08.02.2026 13:50 6,4 °C 6,7 °C 2,8 °C 95 % 1009,3 hPa 0,0 l/m² 0 min 0 min 118 W/m² 19,3 km/h (3 Bft) 97,87 %
08.02.2026 13:52 6,4 °C 6,7 °C 3,3 °C 95 % 1009,3 hPa 0,0 l/m² 0 min 0 min 113 W/m² 12,9 km/h (3 Bft) 51,22 %
08.02.2026 13:54 6,4 °C 6,7 °C 3,3 °C 95 % 1009,3 hPa 0,0 l/m² 0 min 0 min 112 W/m² 6,4 km/h (2 Bft) 97,87 %
08.02.2026 13:56 6,5 °C 6,7 °C 3,3 °C 95 % 1009,2 hPa 0,0 l/m² 0 min 0 min 108 W/m² 6,4 km/h (2 Bft) 97,14 %
08.02.2026 14:00 6,5 °C 6,7 °C 3,3 °C 95 % 1009,2 hPa 0,0 l/m² 0 min 0 min 114 W/m² 6,4 km/h (2 Bft) 96,73 %
08.02.2026 14:02 6,5 °C 6,7 °C 3,3 °C 95 % 1009,2 hPa 0,0 l/m² 0 min 0 min 113 W/m² 6,4 km/h (2 Bft) 100,00 %
08.02.2026 14:07 6,6 °C 7,2 °C 3,3 °C 95 % 1009,1 hPa 0,0 l/m² 0 min 0 min 106 W/m² 12,9 km/h (3 Bft) 100,00 %
08.02.2026 14:08 6,6 °C 6,7 °C 3,3 °C 95 % 1009,1 hPa 0,0 l/m² 0 min 0 min 105 W/m² 6,4 km/h (2 Bft) 100,00 %
08.02.2026 14:10 6,6 °C 6,7 °C 3,3 °C 95 % 1009,1 hPa 0,0 l/m² 0 min 0 min 103 W/m² 12,9 km/h (3 Bft) 96,61 %
08.02.2026 14:12 6,6 °C 6,7 °C 3,3 °C 94 % 1009,1 hPa 0,0 l/m² 0 min 0 min 100 W/m² 16,1 km/h (3 Bft) 97,87 %
08.02.2026 14:14 6,6 °C 6,7 °C 3,3 °C 94 % 1009,1 hPa 0,0 l/m² 0 min 0 min 100 W/m² 16,1 km/h (3 Bft) 97,87 %
08.02.2026 14:16 6,6 °C 6,7 °C 3,3 °C 94 % 1009,1 hPa 0,0 l/m² 0 min 0 min 105 W/m² 16,1 km/h (3 Bft) 95,74 %
08.02.2026 14:18 6,6 °C 6,7 °C 3,3 °C 94 % 1009,2 hPa 0,0 l/m² 0 min 0 min 101 W/m² 12,9 km/h (3 Bft) 95,74 %
08.02.2026 14:20 6,6 °C 6,7 °C 3,3 °C 94 % 1009,2 hPa 0,0 l/m² 0 min 0 min 103 W/m² 16,1 km/h (3 Bft) 95,74 %
08.02.2026 14:22 6,6 °C 6,7 °C 3,3 °C 94 % 1009,1 hPa 0,0 l/m² 0 min 0 min 101 W/m² 12,9 km/h (3 Bft) 93,62 %
08.02.2026 14:24 6,6 °C 6,7 °C 3,3 °C 94 % 1009,2 hPa 0,0 l/m² 0 min 0 min 98 W/m² 12,9 km/h (3 Bft) 95,74 %
08.02.2026 14:26 6,6 °C 6,7 °C 3,3 °C 94 % 1009,1 hPa 0,0 l/m² 0 min 0 min 91 W/m² 16,1 km/h (3 Bft) 95,74 %
08.02.2026 14:28 6,6 °C 6,7 °C 3,3 °C 94 % 1009,1 hPa 0,0 l/m² 0 min 0 min 86 W/m² 12,9 km/h (3 Bft) 97,87 %
08.02.2026 14:30 6,7 °C 6,7 °C 2,8 °C 94 % 1009,2 hPa 0,0 l/m² 0 min 0 min 83 W/m² 16,1 km/h (3 Bft) 95,74 %
08.02.2026 14:32 6,7 °C 6,7 °C 3,3 °C 94 % 1009,2 hPa 0,0 l/m² 0 min 0 min 84 W/m² 12,9 km/h (3 Bft) 95,65 %
08.02.2026 14:34 6,7 °C 6,7 °C 3,3 °C 94 % 1009,1 hPa 0,0 l/m² 0 min 0 min 89 W/m² 9,7 km/h (2 Bft) 95,74 %
08.02.2026 14:36 6,7 °C 6,7 °C 3,3 °C 94 % 1009,2 hPa 0,0 l/m² 0 min 0 min 90 W/m² 12,9 km/h (3 Bft) 93,62 %
08.02.2026 14:38 6,7 °C 6,7 °C 3,3 °C 94 % 1009,2 hPa 0,0 l/m² 0 min 0 min 91 W/m² 16,1 km/h (3 Bft) 93,62 %
08.02.2026 14:40 6,7 °C 6,7 °C 3,3 °C 94 % 1009,1 hPa 0,0 l/m² 0 min 0 min 90 W/m² 12,9 km/h (3 Bft) 97,87 %
08.02.2026 14:42 6,7 °C 6,7 °C 3,3 °C 93 % 1009,1 hPa 0,0 l/m² 0 min 0 min 90 W/m² 16,1 km/h (3 Bft) 95,74 %
08.02.2026 14:44 6,7 °C 6,7 °C 2,8 °C 93 % 1009,1 hPa 0,0 l/m² 0 min 0 min 91 W/m² 12,9 km/h (3 Bft) 95,74 %
08.02.2026 14:46 6,7 °C 6,7 °C 2,8 °C 93 % 1009,1 hPa 0,0 l/m² 0 min 0 min 93 W/m² 19,3 km/h (3 Bft) 95,74 %
08.02.2026 14:48 6,7 °C 6,7 °C 2,8 °C 93 % 1009,1 hPa 0,0 l/m² 0 min 0 min 93 W/m² 12,9 km/h (3 Bft) 95,74 %
08.02.2026 14:50 6,7 °C 6,7 °C 2,8 °C 93 % 1009,1 hPa 0,0 l/m² 0 min 0 min 95 W/m² 9,7 km/h (2 Bft) 95,74 %
08.02.2026 14:52 6,7 °C 6,7 °C 3,3 °C 93 % 1009,1 hPa 0,0 l/m² 0 min 0 min 91 W/m² 12,9 km/h (3 Bft) 95,74 %
08.02.2026 14:54 6,7 °C 6,7 °C 2,8 °C 93 % 1009,1 hPa 0,0 l/m² 0 min 0 min 96 W/m² 22,5 km/h (4 Bft) 97,83 %
08.02.2026 14:56 6,7 °C 6,7 °C 3,3 °C 93 % 1009,1 hPa 0,0 l/m² 0 min 0 min 96 W/m² 9,7 km/h (2 Bft) 100,00 %
08.02.2026 14:58 6,7 °C 6,7 °C 2,8 °C 93 % 1009,1 hPa 0,0 l/m² 0 min 0 min 92 W/m² 12,9 km/h (3 Bft) 100,00 %
08.02.2026 15:00 6,7 °C 6,7 °C 2,8 °C 93 % 1009,1 hPa 0,0 l/m² 0 min 0 min 93 W/m² 16,1 km/h (3 Bft) 97,87 %
08.02.2026 15:02 6,7 °C 6,7 °C 2,8 °C 93 % 1009,1 hPa 0,0 l/m² 0 min 0 min 96 W/m² 16,1 km/h (3 Bft) 100,00 %
08.02.2026 15:04 6,7 °C 6,7 °C 2,8 °C 93 % 1009,1 hPa 0,0 l/m² 0 min 0 min 92 W/m² 16,1 km/h (3 Bft) 97,87 %
08.02.2026 15:06 6,6 °C 6,7 °C 2,8 °C 93 % 1009,1 hPa 0,0 l/m² 0 min 0 min 90 W/m² 16,1 km/h (3 Bft) 97,92 %
08.02.2026 15:08 6,7 °C 6,7 °C 2,8 °C 92 % 1009,1 hPa 0,0 l/m² 0 min 0 min 85 W/m² 19,3 km/h (3 Bft) 100,00 %
08.02.2026 15:10 6,7 °C 6,7 °C 2,8 °C 92 % 1009,0 hPa 0,0 l/m² 0 min 0 min 82 W/m² 16,1 km/h (3 Bft) 95,74 %
08.02.2026 15:12 6,6 °C 6,7 °C 2,8 °C 92 % 1009,1 hPa 0,0 l/m² 0 min 0 min 87 W/m² 16,1 km/h (3 Bft) 97,87 %
08.02.2026 15:14 6,7 °C 6,7 °C 2,8 °C 92 % 1009,1 hPa 0,0 l/m² 0 min 0 min 84 W/m² 9,7 km/h (2 Bft) 97,87 %
08.02.2026 15:16 6,7 °C 6,7 °C 2,8 °C 92 % 1009,2 hPa 0,0 l/m² 0 min 0 min 81 W/m² 16,1 km/h (3 Bft) 95,74 %
08.02.2026 15:18 6,7 °C 6,7 °C 2,8 °C 93 % 1009,1 hPa 0,0 l/m² 0 min 0 min 76 W/m² 16,1 km/h (3 Bft) 97,87 %
08.02.2026 15:20 6,7 °C 6,7 °C 2,8 °C 92 % 1009,1 hPa 0,0 l/m² 0 min 0 min 70 W/m² 12,9 km/h (3 Bft) 97,87 %
08.02.2026 15:22 6,7 °C 6,7 °C 2,8 °C 92 % 1009,1 hPa 0,0 l/m² 0 min 0 min 68 W/m² 12,9 km/h (3 Bft) 97,87 %
08.02.2026 15:24 6,7 °C 6,7 °C 2,8 °C 92 % 1009,1 hPa 0,0 l/m² 0 min 0 min 67 W/m² 9,7 km/h (2 Bft) 97,83 %
08.02.2026 15:26 6,7 °C 6,7 °C 2,8 °C 92 % 1009,1 hPa 0,0 l/m² 0 min 0 min 70 W/m² 12,9 km/h (3 Bft) 97,87 %
08.02.2026 15:28 6,7 °C 6,7 °C 2,8 °C 92 % 1009,1 hPa 0,0 l/m² 0 min 0 min 69 W/m² 16,1 km/h (3 Bft) 95,74 %
08.02.2026 15:30 6,7 °C 6,7 °C 2,8 °C 92 % 1009,0 hPa 0,0 l/m² 0 min 0 min 69 W/m² 12,9 km/h (3 Bft) 97,87 %
08.02.2026 15:32 6,7 °C 6,7 °C 2,8 °C 92 % 1009,0 hPa 0,0 l/m² 0 min 0 min 74 W/m² 9,7 km/h (2 Bft) 97,87 %
08.02.2026 15:34 6,7 °C 6,7 °C 2,8 °C 92 % 1009,0 hPa 0,0 l/m² 0 min 0 min 68 W/m² 12,9 km/h (3 Bft) 97,87 %
08.02.2026 15:36 6,7 °C 6,7 °C 2,8 °C 92 % 1009,0 hPa 0,0 l/m² 0 min 0 min 63 W/m² 16,1 km/h (3 Bft) 97,87 %
08.02.2026 15:38 6,7 °C 6,7 °C 2,8 °C 92 % 1009,0 hPa 0,0 l/m² 0 min 0 min 64 W/m² 12,9 km/h (3 Bft) 95,74 %
08.02.2026 15:40 6,7 °C 6,7 °C 2,8 °C 92 % 1009,0 hPa 0,0 l/m² 0 min 0 min 63 W/m² 12,9 km/h (3 Bft) 93,62 %
08.02.2026 15:42 6,7 °C 6,7 °C 2,8 °C 92 % 1009,1 hPa 0,0 l/m² 0 min 0 min 57 W/m² 12,9 km/h (3 Bft) 95,74 %
08.02.2026 15:44 6,7 °C 6,7 °C 2,8 °C 92 % 1009,1 hPa 0,0 l/m² 0 min 0 min 54 W/m² 6,4 km/h (2 Bft) 97,87 %
08.02.2026 15:46 6,7 °C 6,7 °C 2,8 °C 92 % 1009,1 hPa 0,0 l/m² 0 min 0 min 49 W/m² 12,9 km/h (3 Bft) 97,83 %
08.02.2026 15:48 6,7 °C 6,1 °C 2,8 °C 92 % 1009,1 hPa 0,0 l/m² 0 min 0 min 52 W/m² 16,1 km/h (3 Bft) 97,87 %
08.02.2026 15:50 6,7 °C 6,7 °C 2,8 °C 92 % 1009,0 hPa 0,0 l/m² 0 min 0 min 54 W/m² 9,7 km/h (2 Bft) 93,62 %
08.02.2026 15:52 6,7 °C 6,7 °C 2,8 °C 92 % 1009,1 hPa 0,0 l/m² 0 min 0 min 55 W/m² 16,1 km/h (3 Bft) 100,00 %
08.02.2026 15:54 6,7 °C 6,7 °C 2,8 °C 92 % 1009,1 hPa 0,0 l/m² 0 min 0 min 61 W/m² 16,1 km/h (3 Bft) 100,00 %
08.02.2026 15:56 6,7 °C 6,1 °C 2,8 °C 92 % 1009,1 hPa 0,0 l/m² 0 min 0 min 57 W/m² 19,3 km/h (3 Bft) 97,14 %
08.02.2026 15:58 6,7 °C 6,1 °C 2,8 °C 92 % 1009,1 hPa 0,0 l/m² 0 min 0 min 59 W/m² 9,7 km/h (2 Bft) 100,00 %
08.02.2026 16:00 6,7 °C 6,7 °C 2,8 °C 92 % 1009,1 hPa 0,0 l/m² 0 min 0 min 59 W/m² 12,9 km/h (3 Bft) 100,00 %
08.02.2026 16:02 6,6 °C 6,7 °C 2,8 °C 92 % 1009,1 hPa 0,0 l/m² 0 min 0 min 60 W/m² 16,1 km/h (3 Bft) 98,31 %
08.02.2026 16:04 6,6 °C 6,1 °C 2,8 °C 92 % 1009,1 hPa 0,0 l/m² 0 min 0 min 57 W/m² 9,7 km/h (2 Bft) 97,22 %
08.02.2026 16:06 6,6 °C 6,1 °C 2,8 °C 92 % 1009,2 hPa 0,0 l/m² 0 min 0 min 57 W/m² 12,9 km/h (3 Bft) 100,00 %
08.02.2026 16:08 6,6 °C 6,1 °C 2,8 °C 92 % 1009,1 hPa 0,0 l/m² 0 min 0 min 61 W/m² 16,1 km/h (3 Bft) 100,00 %
08.02.2026 16:10 6,6 °C 6,1 °C 2,8 °C 92 % 1009,2 hPa 0,0 l/m² 0 min 0 min 63 W/m² 16,1 km/h (3 Bft) 100,00 %
08.02.2026 16:12 6,7 °C 6,1 °C 2,8 °C 92 % 1009,1 hPa 0,0 l/m² 0 min 0 min 60 W/m² 6,4 km/h (2 Bft) 97,87 %
08.02.2026 16:14 6,6 °C 6,7 °C 2,8 °C 92 % 1009,2 hPa 0,0 l/m² 0 min 0 min 60 W/m² 12,9 km/h (3 Bft) 97,87 %
08.02.2026 16:16 6,6 °C 6,7 °C 2,8 °C 92 % 1009,1 hPa 0,0 l/m² 0 min 0 min 61 W/m² 12,9 km/h (3 Bft) 100,00 %
08.02.2026 16:18 6,7 °C 6,7 °C 2,8 °C 92 % 1009,1 hPa 0,0 l/m² 0 min 0 min 60 W/m² 12,9 km/h (3 Bft) 97,83 %
08.02.2026 16:20 6,6 °C 6,7 °C 2,8 °C 92 % 1009,0 hPa 0,0 l/m² 0 min 0 min 57 W/m² 12,9 km/h (3 Bft) 96,36 %
08.02.2026 16:22 6,6 °C 6,1 °C 2,8 °C 92 % 1009,0 hPa 0,0 l/m² 0 min 0 min 62 W/m² 16,1 km/h (3 Bft) 97,96 %
08.02.2026 16:24 6,6 °C 6,1 °C 2,8 °C 92 % 1009,0 hPa 0,0 l/m² 0 min 0 min 57 W/m² 12,9 km/h (3 Bft) 100,00 %
08.02.2026 16:26 6,6 °C 6,1 °C 2,8 °C 92 % 1009,0 hPa 0,0 l/m² 0 min 0 min 53 W/m² 12,9 km/h (3 Bft) 93,62 %
08.02.2026 16:28 6,6 °C 6,1 °C 2,8 °C 92 % 1009,0 hPa 0,0 l/m² 0 min 0 min 51 W/m² 16,1 km/h (3 Bft) 95,74 %
08.02.2026 16:30 6,6 °C 6,1 °C 2,8 °C 92 % 1009,1 hPa 0,0 l/m² 0 min 0 min 49 W/m² 12,9 km/h (3 Bft) 97,87 %
08.02.2026 16:32 6,6 °C 6,1 °C 2,8 °C 92 % 1009,1 hPa 0,0 l/m² 0 min 0 min 50 W/m² 6,4 km/h (2 Bft) 95,74 %
08.02.2026 16:34 6,6 °C 6,1 °C 2,8 °C 92 % 1009,1 hPa 0,0 l/m² 0 min 0 min 49 W/m² 12,9 km/h (3 Bft) 97,87 %
08.02.2026 16:36 6,6 °C 6,1 °C 2,8 °C 92 % 1009,1 hPa 0,0 l/m² 0 min 0 min 53 W/m² 9,7 km/h (2 Bft) 97,87 %
08.02.2026 16:38 6,6 °C 6,1 °C 2,8 °C 92 % 1009,1 hPa 0,0 l/m² 0 min 0 min 48 W/m² 12,9 km/h (3 Bft) 97,92 %
08.02.2026 16:40 6,6 °C 6,1 °C 2,8 °C 92 % 1009,1 hPa 0,0 l/m² 0 min 0 min 46 W/m² 9,7 km/h (2 Bft) 95,74 %
08.02.2026 16:42 6,6 °C 6,1 °C 2,8 °C 92 % 1009,0 hPa 0,0 l/m² 0 min 0 min 44 W/m² 12,9 km/h (3 Bft) 95,74 %
08.02.2026 16:44 6,6 °C 6,1 °C 2,8 °C 92 % 1009,0 hPa 0,0 l/m² 0 min 0 min 44 W/m² 12,9 km/h (3 Bft) 95,83 %
08.02.2026 16:46 6,6 °C 6,1 °C 2,8 °C 92 % 1009,0 hPa 0,0 l/m² 0 min 0 min 40 W/m² 12,9 km/h (3 Bft) 95,74 %
08.02.2026 16:48 6,6 °C 6,1 °C 2,8 °C 92 % 1009,0 hPa 0,0 l/m² 0 min 0 min 35 W/m² 12,9 km/h (3 Bft) 95,74 %
08.02.2026 16:50 6,6 °C 6,1 °C 2,8 °C 92 % 1009,0 hPa 0,0 l/m² 0 min 0 min 33 W/m² 12,9 km/h (3 Bft) 97,87 %
08.02.2026 16:52 6,6 °C 6,1 °C 2,8 °C 92 % 1009,1 hPa 0,0 l/m² 0 min 0 min 33 W/m² 16,1 km/h (3 Bft) 97,87 %
08.02.2026 16:54 6,6 °C 6,1 °C 2,8 °C 92 % 1009,2 hPa 0,0 l/m² 0 min 0 min 32 W/m² 9,7 km/h (2 Bft) 95,74 %
08.02.2026 16:56 6,6 °C 6,1 °C 2,8 °C 92 % 1009,1 hPa 0,0 l/m² 0 min 0 min 31 W/m² 16,1 km/h (3 Bft) 97,87 %
08.02.2026 16:58 6,6 °C 6,1 °C 2,8 °C 92 % 1009,1 hPa 0,0 l/m² 0 min 0 min 28 W/m² 12,9 km/h (3 Bft) 95,74 %
08.02.2026 17:00 6,6 °C 6,1 °C 2,2 °C 92 % 1009,1 hPa 0,0 l/m² 0 min 0 min 26 W/m² 16,1 km/h (3 Bft) 97,87 %
08.02.2026 17:02 6,6 °C 6,1 °C 2,2 °C 92 % 1009,1 hPa 0,0 l/m² 0 min 0 min 26 W/m² 12,9 km/h (3 Bft) 95,74 %
08.02.2026 17:04 6,5 °C 6,1 °C 2,2 °C 92 % 1009,1 hPa 0,0 l/m² 0 min 0 min 26 W/m² 12,9 km/h (3 Bft) 95,83 %
08.02.2026 17:06 6,5 °C 6,1 °C 2,2 °C 92 % 1009,1 hPa 0,0 l/m² 0 min 0 min 23 W/m² 12,9 km/h (3 Bft) 97,83 %
08.02.2026 17:08 6,5 °C 5,6 °C 2,2 °C 92 % 1009,1 hPa 0,0 l/m² 0 min 0 min 19 W/m² 9,7 km/h (2 Bft) 96,30 %
08.02.2026 17:10 6,4 °C 5,6 °C 2,2 °C 91 % 1009,1 hPa 0,0 l/m² 0 min 0 min 19 W/m² 6,4 km/h (2 Bft) 97,14 %
08.02.2026 17:12 6,4 °C 5,6 °C 2,2 °C 92 % 1009,1 hPa 0,0 l/m² 0 min 0 min 17 W/m² 6,4 km/h (2 Bft) 93,75 %
08.02.2026 17:14 6,4 °C 5,6 °C 2,2 °C 92 % 1009,1 hPa 0,0 l/m² 0 min 0 min 16 W/m² 9,7 km/h (2 Bft) 97,87 %
08.02.2026 17:16 6,3 °C 5,6 °C 2,2 °C 92 % 1009,1 hPa 0,0 l/m² 0 min 0 min 15 W/m² 9,7 km/h (2 Bft) 95,74 %
08.02.2026 17:18 6,3 °C 5,6 °C 2,2 °C 92 % 1009,1 hPa 0,0 l/m² 0 min 0 min 14 W/m² 6,4 km/h (2 Bft) 95,65 %
08.02.2026 17:20 6,2 °C 5,0 °C 1,7 °C 92 % 1009,1 hPa 0,0 l/m² 0 min 0 min 13 W/m² 9,7 km/h (2 Bft) 97,87 %
08.02.2026 17:22 6,2 °C 5,0 °C 1,7 °C 92 % 1009,1 hPa 0,0 l/m² 0 min 0 min 12 W/m² 6,4 km/h (2 Bft) 97,87 %
08.02.2026 17:24 6,2 °C 5,0 °C 1,7 °C 92 % 1009,1 hPa 0,0 l/m² 0 min 0 min 11 W/m² 6,4 km/h (2 Bft) 97,87 %
08.02.2026 17:26 6,1 °C 5,0 °C 1,7 °C 92 % 1009,1 hPa 0,0 l/m² 0 min 0 min 11 W/m² 6,4 km/h (2 Bft) 95,74 %
08.02.2026 17:28 6,1 °C 5,0 °C 1,7 °C 92 % 1009,1 hPa 0,0 l/m² 0 min 0 min 10 W/m² 6,4 km/h (2 Bft) 95,74 %
08.02.2026 17:30 6,1 °C 5,0 °C 1,7 °C 92 % 1009,1 hPa 0,0 l/m² 0 min 0 min 8 W/m² 12,9 km/h (3 Bft) 100,00 %
08.02.2026 17:32 6,0 °C 5,0 °C 1,7 °C 92 % 1009,1 hPa 0,0 l/m² 0 min 0 min 7 W/m² 3,2 km/h (1 Bft) 97,87 %
08.02.2026 17:34 5,9 °C 5,0 °C 1,7 °C 92 % 1009,1 hPa 0,0 l/m² 0 min 0 min 6 W/m² 6,4 km/h (2 Bft) 100,00 %
08.02.2026 17:36 5,9 °C 5,0 °C 1,7 °C 92 % 1009,2 hPa 0,0 l/m² 0 min 0 min 5 W/m² 6,4 km/h (2 Bft) 97,87 %
08.02.2026 17:38 5,9 °C 4,4 °C 1,7 °C 92 % 1009,2 hPa 0,0 l/m² 0 min 0 min 1 W/m² 3,2 km/h (1 Bft) 97,87 %
08.02.2026 17:40 5,8 °C 4,4 °C 1,1 °C 92 % 1009,1 hPa 0,0 l/m² 0 min 0 min 0 W/m² 6,4 km/h (2 Bft) 97,87 %
08.02.2026 17:42 5,8 °C 4,4 °C 1,1 °C 92 % 1009,1 hPa 0,0 l/m² 0 min 0 min 0 W/m² 6,4 km/h (2 Bft) 97,83 %
08.02.2026 17:44 5,8 °C 4,4 °C 1,1 °C 92 % 1009,1 hPa 0,0 l/m² 0 min 0 min 0 W/m² 3,2 km/h (1 Bft) 97,87 %
08.02.2026 17:46 5,7 °C 4,4 °C 1,1 °C 92 % 1009,2 hPa 0,0 l/m² 0 min 0 min 0 W/m² 3,2 km/h (1 Bft) 97,87 %
08.02.2026 17:48 5,7 °C 4,4 °C 1,1 °C 92 % 1009,1 hPa 0,0 l/m² 0 min 0 min 0 W/m² 6,4 km/h (2 Bft) 97,87 %
08.02.2026 17:50 5,6 °C 4,4 °C 1,1 °C 92 % 1009,1 hPa 0,0 l/m² 0 min 0 min 0 W/m² 3,2 km/h (1 Bft) 45,95 %
08.02.2026 17:52 5,6 °C 3,9 °C 1,1 °C 92 % 1009,0 hPa 0,0 l/m² 0 min 0 min 0 W/m² 3,2 km/h (1 Bft) 97,87 %
08.02.2026 17:54 5,6 °C 3,9 °C 1,1 °C 92 % 1009,1 hPa 0,0 l/m² 0 min 0 min 0 W/m² 3,2 km/h (1 Bft) 97,87 %
08.02.2026 17:56 5,6 °C 3,9 °C 1,1 °C 92 % 1009,1 hPa 0,0 l/m² 0 min 0 min 0 W/m² 3,2 km/h (1 Bft) 97,87 %
08.02.2026 17:58 5,5 °C 3,9 °C 1,1 °C 92 % 1009,1 hPa 0,0 l/m² 0 min 0 min 0 W/m² 3,2 km/h (1 Bft) 97,87 %
08.02.2026 18:03 5,4 °C 3,9 °C 1,1 °C 92 % 1009,1 hPa 0,0 l/m² 0 min 0 min 0 W/m² 3,2 km/h (1 Bft) 96,00 %
08.02.2026 18:04 5,4 °C 3,9 °C 1,1 °C 92 % 1009,1 hPa 0,0 l/m² 0 min 0 min 0 W/m² 3,2 km/h (1 Bft) 96,15 %
08.02.2026 18:05 5,4 °C 3,9 °C 1,1 °C 92 % 1009,1 hPa 0,0 l/m² 0 min 0 min 0 W/m² 3,2 km/h (1 Bft) 88,60 %
08.02.2026 18:08 5,3 °C 3,9 °C 1,1 °C 92 % 1009,1 hPa 0,0 l/m² 0 min 0 min 0 W/m² 0,0 km/h (0 Bft) 95,24 %
08.02.2026 18:10 5,3 °C 3,9 °C 0,6 °C 92 % 1009,1 hPa 0,0 l/m² 0 min 0 min 0 W/m² 3,2 km/h (1 Bft) 95,74 %
08.02.2026 18:12 5,3 °C 3,9 °C 0,6 °C 92 % 1009,2 hPa 0,0 l/m² 0 min 0 min 0 W/m² 3,2 km/h (1 Bft) 95,74 %
08.02.2026 18:14 5,2 °C 3,9 °C 0,6 °C 92 % 1009,1 hPa 0,0 l/m² 0 min 0 min 0 W/m² 3,2 km/h (1 Bft) 93,62 %
08.02.2026 18:16 5,2 °C 3,9 °C 0,6 °C 92 % 1009,2 hPa 0,0 l/m² 0 min 0 min 0 W/m² 0,0 km/h (0 Bft) 95,74 %
08.02.2026 18:18 5,2 °C 3,9 °C 0,6 °C 92 % 1009,3 hPa 0,0 l/m² 0 min 0 min 0 W/m² 0,0 km/h (0 Bft) 95,74 %
08.02.2026 18:20 5,2 °C 3,9 °C 0,6 °C 92 % 1009,2 hPa 0,0 l/m² 0 min 0 min 0 W/m² 0,0 km/h (0 Bft) 95,74 %
08.02.2026 18:22 5,1 °C 3,3 °C 0,6 °C 92 % 1009,3 hPa 0,0 l/m² 0 min 0 min 0 W/m² 0,0 km/h (0 Bft) 95,74 %
08.02.2026 18:24 5,1 °C 3,3 °C 0,6 °C 93 % 1009,3 hPa 0,0 l/m² 0 min 0 min 0 W/m² 0,0 km/h (0 Bft) 95,65 %
08.02.2026 18:26 5,1 °C 3,3 °C 0,0 °C 93 % 1009,3 hPa 0,0 l/m² 0 min 0 min 0 W/m² 0,0 km/h (0 Bft) 91,49 %
08.02.2026 18:28 5,1 °C 3,3 °C 0,0 °C 93 % 1009,3 hPa 0,0 l/m² 0 min 0 min 0 W/m² 0,0 km/h (0 Bft) 97,87 %
08.02.2026 18:30 5,0 °C 2,8 °C 0,0 °C 93 % 1009,4 hPa 0,0 l/m² 0 min 0 min 0 W/m² 0,0 km/h (0 Bft) 97,87 %
08.02.2026 18:32 4,9 °C 2,8 °C 0,0 °C 93 % 1009,4 hPa 0,0 l/m² 0 min 0 min 0 W/m² 0,0 km/h (0 Bft) 97,87 %
08.02.2026 18:34 4,9 °C 2,8 °C 0,0 °C 93 % 1009,3 hPa 0,0 l/m² 0 min 0 min 0 W/m² 0,0 km/h (0 Bft) 97,87 %
08.02.2026 18:36 4,8 °C 2,8 °C 0,0 °C 92 % 1009,3 hPa 0,0 l/m² 0 min 0 min 0 W/m² 0,0 km/h (0 Bft) 97,87 %
08.02.2026 18:38 4,8 °C 2,8 °C -0,6 °C 92 % 1009,3 hPa 0,0 l/m² 0 min 0 min 0 W/m² 0,0 km/h (0 Bft) 97,87 %
08.02.2026 18:40 4,7 °C 2,8 °C -0,6 °C 92 % 1009,3 hPa 0,0 l/m² 0 min 0 min 0 W/m² 0,0 km/h (0 Bft) 97,87 %
08.02.2026 18:42 4,7 °C 2,8 °C -0,6 °C 92 % 1009,3 hPa 0,0 l/m² 0 min 0 min 0 W/m² 0,0 km/h (0 Bft) 100,00 %
08.02.2026 18:44 4,6 °C 2,8 °C -0,6 °C 92 % 1009,3 hPa 0,0 l/m² 0 min 0 min 0 W/m² 0,0 km/h (0 Bft) 97,87 %
08.02.2026 18:46 4,6 °C 2,8 °C -0,6 °C 92 % 1009,3 hPa 0,0 l/m² 0 min 0 min 0 W/m² 0,0 km/h (0 Bft) 100,00 %
08.02.2026 18:48 4,5 °C 2,8 °C -0,6 °C 92 % 1009,3 hPa 0,0 l/m² 0 min 0 min 0 W/m² 0,0 km/h (0 Bft) 100,00 %
08.02.2026 18:50 4,4 °C 2,8 °C -0,6 °C 92 % 1009,3 hPa 0,0 l/m² 0 min 0 min 0 W/m² 0,0 km/h (0 Bft) 100,00 %
08.02.2026 18:52 4,3 °C 2,8 °C -0,6 °C 92 % 1009,3 hPa 0,0 l/m² 0 min 0 min 0 W/m² 3,2 km/h (1 Bft) 100,00 %
08.02.2026 18:54 4,3 °C 2,8 °C -0,6 °C 92 % 1009,3 hPa 0,0 l/m² 0 min 0 min 0 W/m² 3,2 km/h (1 Bft) 97,87 %
08.02.2026 18:56 4,3 °C 2,8 °C -0,6 °C 92 % 1009,3 hPa 0,0 l/m² 0 min 0 min 0 W/m² 3,2 km/h (1 Bft) 97,87 %
08.02.2026 18:58 4,2 °C 2,8 °C -0,6 °C 92 % 1009,3 hPa 0,0 l/m² 0 min 0 min 0 W/m² 3,2 km/h (1 Bft) 100,00 %
08.02.2026 19:00 4,2 °C 2,8 °C -0,6 °C 92 % 1009,4 hPa 0,0 l/m² 0 min 0 min 0 W/m² 0,0 km/h (0 Bft) 100,00 %
08.02.2026 19:02 4,2 °C 2,8 °C -0,6 °C 93 % 1009,4 hPa 0,0 l/m² 0 min 0 min 0 W/m² 0,0 km/h (0 Bft) 100,00 %
08.02.2026 19:04 4,1 °C 2,8 °C -0,6 °C 93 % 1009,4 hPa 0,0 l/m² 0 min 0 min 0 W/m² 0,0 km/h (0 Bft) 100,00 %
08.02.2026 19:06 4,1 °C 2,2 °C -0,6 °C 92 % 1009,5 hPa 0,0 l/m² 0 min 0 min 0 W/m² 3,2 km/h (1 Bft) 97,87 %
08.02.2026 19:08 4,1 °C 2,2 °C -0,6 °C 93 % 1009,5 hPa 0,0 l/m² 0 min 0 min 0 W/m² 0,0 km/h (0 Bft) 100,00 %
08.02.2026 19:10 4,0 °C 2,2 °C -0,6 °C 93 % 1009,4 hPa 0,0 l/m² 0 min 0 min 0 W/m² 0,0 km/h (0 Bft) 100,00 %
08.02.2026 19:12 4,0 °C 2,2 °C -0,6 °C 93 % 1009,4 hPa 0,0 l/m² 0 min 0 min 0 W/m² 0,0 km/h (0 Bft) 100,00 %
08.02.2026 19:14 3,9 °C 2,2 °C -0,6 °C 93 % 1009,3 hPa 0,0 l/m² 0 min 0 min 0 W/m² 0,0 km/h (0 Bft) 100,00 %
08.02.2026 19:16 3,9 °C 2,2 °C -0,6 °C 93 % 1009,3 hPa 0,0 l/m² 0 min 0 min 0 W/m² 3,2 km/h (1 Bft) 97,87 %
08.02.2026 19:18 3,8 °C 2,2 °C -0,6 °C 93 % 1009,3 hPa 0,0 l/m² 0 min 0 min 0 W/m² 3,2 km/h (1 Bft) 100,00 %
08.02.2026 19:20 3,8 °C 2,2 °C -0,6 °C 93 % 1009,3 hPa 0,0 l/m² 0 min 0 min 0 W/m² 3,2 km/h (1 Bft) 100,00 %
08.02.2026 19:22 3,8 °C 2,2 °C -0,6 °C 93 % 1009,3 hPa 0,0 l/m² 0 min 0 min 0 W/m² 3,2 km/h (1 Bft) 100,00 %
08.02.2026 19:24 3,7 °C 2,2 °C -0,6 °C 93 % 1009,4 hPa 0,0 l/m² 0 min 0 min 0 W/m² 3,2 km/h (1 Bft) 100,00 %
08.02.2026 19:26 3,7 °C 2,2 °C -0,6 °C 93 % 1009,3 hPa 0,0 l/m² 0 min 0 min 0 W/m² 3,2 km/h (1 Bft) 100,00 %
08.02.2026 19:28 3,7 °C 2,2 °C -0,6 °C 93 % 1009,3 hPa 0,0 l/m² 0 min 0 min 0 W/m² 3,2 km/h (1 Bft) 100,00 %
08.02.2026 19:30 3,7 °C 2,2 °C -0,6 °C 93 % 1009,3 hPa 0,0 l/m² 0 min 0 min 0 W/m² 3,2 km/h (1 Bft) 100,00 %
08.02.2026 19:32 3,7 °C 2,2 °C -0,6 °C 93 % 1009,4 hPa 0,0 l/m² 0 min 0 min 0 W/m² 3,2 km/h (1 Bft) 100,00 %
08.02.2026 19:34 3,7 °C 2,2 °C -0,6 °C 93 % 1009,4 hPa 0,0 l/m² 0 min 0 min 0 W/m² 3,2 km/h (1 Bft) 100,00 %
08.02.2026 19:36 3,7 °C 2,2 °C -0,6 °C 93 % 1009,4 hPa 0,0 l/m² 0 min 0 min 0 W/m² 3,2 km/h (1 Bft) 100,00 %
08.02.2026 19:38 3,6 °C 2,2 °C -0,6 °C 93 % 1009,3 hPa 0,0 l/m² 0 min 0 min 0 W/m² 3,2 km/h (1 Bft) 100,00 %
08.02.2026 19:40 3,6 °C 2,2 °C -0,6 °C 93 % 1009,4 hPa 0,0 l/m² 0 min 0 min 0 W/m² 0,0 km/h (0 Bft) 100,00 %
08.02.2026 19:42 3,6 °C 2,2 °C -0,6 °C 93 % 1009,3 hPa 0,0 l/m² 0 min 0 min 0 W/m² 6,4 km/h (2 Bft) 100,00 %
08.02.2026 19:44 3,6 °C 2,2 °C -0,6 °C 93 % 1009,3 hPa 0,0 l/m² 0 min 0 min 0 W/m² 0,0 km/h (0 Bft) 97,87 %
08.02.2026 19:46 3,6 °C 2,2 °C -0,6 °C 93 % 1009,4 hPa 0,0 l/m² 0 min 0 min 0 W/m² 3,2 km/h (1 Bft) 100,00 %
08.02.2026 19:48 3,6 °C 2,2 °C -0,6 °C 93 % 1009,4 hPa 0,0 l/m² 0 min 0 min 0 W/m² 3,2 km/h (1 Bft) 100,00 %
08.02.2026 19:50 3,6 °C 2,2 °C -0,6 °C 93 % 1009,4 hPa 0,0 l/m² 0 min 0 min 0 W/m² 3,2 km/h (1 Bft) 97,83 %
08.02.2026 19:52 3,6 °C 2,2 °C -0,6 °C 94 % 1009,4 hPa 0,0 l/m² 0 min 0 min 0 W/m² 3,2 km/h (1 Bft) 97,87 %
08.02.2026 19:54 3,5 °C 2,2 °C -0,6 °C 94 % 1009,4 hPa 0,0 l/m² 0 min 0 min 0 W/m² 3,2 km/h (1 Bft) 93,62 %
08.02.2026 19:56 3,5 °C 2,2 °C -0,6 °C 94 % 1009,3 hPa 0,0 l/m² 0 min 0 min 0 W/m² 3,2 km/h (1 Bft) 91,49 %
08.02.2026 19:58 3,5 °C 2,2 °C -0,6 °C 94 % 1009,4 hPa 0,0 l/m² 0 min 0 min 0 W/m² 3,2 km/h (1 Bft) 93,02 %
08.02.2026 20:00 3,4 °C 2,2 °C -0,6 °C 94 % 1009,4 hPa 0,0 l/m² 0 min 0 min 0 W/m² 3,2 km/h (1 Bft) 89,36 %
08.02.2026 20:02 3,4 °C 2,2 °C -0,6 °C 94 % 1009,4 hPa 0,0 l/m² 0 min 0 min 0 W/m² 3,2 km/h (1 Bft) 91,49 %
08.02.2026 20:04 3,4 °C 2,2 °C -0,6 °C 94 % 1009,4 hPa 0,0 l/m² 0 min 0 min 0 W/m² 0,0 km/h (0 Bft) 91,67 %
08.02.2026 20:06 3,4 °C 2,2 °C -1,1 °C 94 % 1009,3 hPa 0,0 l/m² 0 min 0 min 0 W/m² 0,0 km/h (0 Bft) 91,49 %
08.02.2026 20:08 3,4 °C 2,2 °C -1,1 °C 94 % 1009,4 hPa 0,0 l/m² 0 min 0 min 0 W/m² 3,2 km/h (1 Bft) 93,48 %
08.02.2026 20:10 3,4 °C 2,2 °C -1,1 °C 94 % 1009,4 hPa 0,0 l/m² 0 min 0 min 0 W/m² 3,2 km/h (1 Bft) 91,49 %
08.02.2026 20:12 3,4 °C 2,2 °C -1,1 °C 94 % 1009,4 hPa 0,0 l/m² 0 min 0 min 0 W/m² 3,2 km/h (1 Bft) 89,36 %
08.02.2026 20:14 3,3 °C 2,2 °C -0,6 °C 94 % 1009,4 hPa 0,0 l/m² 0 min 0 min 0 W/m² 3,2 km/h (1 Bft) 86,96 %
08.02.2026 20:16 3,3 °C 2,2 °C -1,1 °C 94 % 1009,4 hPa 0,0 l/m² 0 min 0 min 0 W/m² 0,0 km/h (0 Bft) 93,62 %
08.02.2026 20:18 3,3 °C 2,2 °C -0,6 °C 94 % 1009,4 hPa 0,0 l/m² 0 min 0 min 0 W/m² 0,0 km/h (0 Bft) 93,62 %
08.02.2026 20:20 3,3 °C 2,2 °C -1,1 °C 94 % 1009,4 hPa 0,0 l/m² 0 min 0 min 0 W/m² 0,0 km/h (0 Bft) 91,49 %
08.02.2026 20:22 3,3 °C 2,2 °C -1,1 °C 94 % 1009,4 hPa 0,0 l/m² 0 min 0 min 0 W/m² 3,2 km/h (1 Bft) 95,74 %
08.02.2026 20:24 3,3 °C 2,2 °C -1,1 °C 94 % 1009,4 hPa 0,0 l/m² 0 min 0 min 0 W/m² 0,0 km/h (0 Bft) 89,36 %
08.02.2026 20:26 3,3 °C 2,2 °C -1,1 °C 94 % 1009,4 hPa 0,0 l/m² 0 min 0 min 0 W/m² 3,2 km/h (1 Bft) 93,62 %
08.02.2026 20:28 3,3 °C 2,2 °C -1,1 °C 94 % 1009,4 hPa 0,0 l/m² 0 min 0 min 0 W/m² 0,0 km/h (0 Bft) 97,87 %
08.02.2026 20:30 3,3 °C 2,2 °C -1,1 °C 94 % 1009,4 hPa 0,0 l/m² 0 min 0 min 0 W/m² 0,0 km/h (0 Bft) 95,74 %
08.02.2026 20:32 3,3 °C 2,2 °C -1,1 °C 94 % 1009,4 hPa 0,0 l/m² 0 min 0 min 0 W/m² 0,0 km/h (0 Bft) 91,49 %
08.02.2026 20:34 3,2 °C 2,2 °C -1,1 °C 94 % 1009,4 hPa 0,0 l/m² 0 min 0 min 0 W/m² 0,0 km/h (0 Bft) 95,74 %
08.02.2026 20:36 3,2 °C 2,2 °C -1,1 °C 94 % 1009,5 hPa 0,0 l/m² 0 min 0 min 0 W/m² 0,0 km/h (0 Bft) 97,87 %
08.02.2026 20:38 3,2 °C 2,2 °C -1,1 °C 94 % 1009,5 hPa 0,0 l/m² 0 min 0 min 0 W/m² 0,0 km/h (0 Bft) 95,65 %
08.02.2026 20:40 3,2 °C 2,2 °C -1,1 °C 94 % 1009,5 hPa 0,0 l/m² 0 min 0 min 0 W/m² 0,0 km/h (0 Bft) 97,87 %
08.02.2026 20:42 3,2 °C 2,2 °C -1,1 °C 94 % 1009,5 hPa 0,0 l/m² 0 min 0 min 0 W/m² 0,0 km/h (0 Bft) 97,22 %
08.02.2026 20:44 3,2 °C 2,2 °C -1,1 °C 94 % 1009,5 hPa 0,0 l/m² 0 min 0 min 0 W/m² 0,0 km/h (0 Bft) 98,28 %
08.02.2026 20:46 3,2 °C 2,2 °C -1,1 °C 94 % 1009,4 hPa 0,0 l/m² 0 min 0 min 0 W/m² 0,0 km/h (0 Bft) 97,14 %
08.02.2026 20:48 3,2 °C 2,2 °C -1,1 °C 94 % 1009,4 hPa 0,0 l/m² 0 min 0 min 0 W/m² 0,0 km/h (0 Bft) 100,00 %
08.02.2026 20:50 3,2 °C 2,2 °C -1,1 °C 94 % 1009,4 hPa 0,0 l/m² 0 min 0 min 0 W/m² 0,0 km/h (0 Bft) 97,87 %
08.02.2026 20:52 3,2 °C 1,7 °C -1,1 °C 94 % 1009,5 hPa 0,0 l/m² 0 min 0 min 0 W/m² 0,0 km/h (0 Bft) 100,00 %
08.02.2026 20:54 3,1 °C 1,7 °C -1,1 °C 95 % 1009,5 hPa 0,0 l/m² 0 min 0 min 0 W/m² 0,0 km/h (0 Bft) 100,00 %
08.02.2026 20:56 3,1 °C 1,7 °C -1,1 °C 95 % 1009,4 hPa 0,0 l/m² 0 min 0 min 0 W/m² 0,0 km/h (0 Bft) 100,00 %
08.02.2026 20:58 3,1 °C 1,7 °C -1,1 °C 95 % 1009,4 hPa 0,0 l/m² 0 min 0 min 0 W/m² 0,0 km/h (0 Bft) 97,87 %
08.02.2026 21:00 3,1 °C 1,7 °C -1,1 °C 95 % 1009,4 hPa 0,0 l/m² 0 min 0 min 0 W/m² 0,0 km/h (0 Bft) 95,74 %
08.02.2026 21:02 3,0 °C 1,7 °C -1,1 °C 95 % 1009,4 hPa 0,0 l/m² 0 min 0 min 0 W/m² 0,0 km/h (0 Bft) 100,00 %
08.02.2026 21:04 3,0 °C 1,7 °C -1,1 °C 95 % 1009,4 hPa 0,0 l/m² 0 min 0 min 0 W/m² 0,0 km/h (0 Bft) 100,00 %
08.02.2026 21:06 3,0 °C 1,7 °C -1,1 °C 95 % 1009,4 hPa 0,0 l/m² 0 min 0 min 0 W/m² 0,0 km/h (0 Bft) 100,00 %
08.02.2026 21:08 2,9 °C 1,7 °C -1,1 °C 95 % 1009,4 hPa 0,0 l/m² 0 min 0 min 0 W/m² 0,0 km/h (0 Bft) 94,29 %
08.02.2026 21:10 2,9 °C 1,7 °C -1,1 °C 95 % 1009,4 hPa 0,0 l/m² 0 min 0 min 0 W/m² 0,0 km/h (0 Bft) 100,00 %
08.02.2026 21:12 2,9 °C 1,7 °C -1,1 °C 95 % 1009,4 hPa 0,0 l/m² 0 min 0 min 0 W/m² 0,0 km/h (0 Bft) 100,00 %
08.02.2026 21:14 2,9 °C 1,7 °C -1,1 °C 95 % 1009,4 hPa 0,0 l/m² 0 min 0 min 0 W/m² 0,0 km/h (0 Bft) 100,00 %
08.02.2026 21:16 2,9 °C 1,7 °C -1,1 °C 95 % 1009,4 hPa 0,0 l/m² 0 min 0 min 0 W/m² 0,0 km/h (0 Bft) 100,00 %
08.02.2026 21:18 2,9 °C 1,7 °C -1,1 °C 95 % 1009,3 hPa 0,0 l/m² 0 min 0 min 0 W/m² 0,0 km/h (0 Bft) 100,00 %
08.02.2026 21:20 2,9 °C 1,7 °C -1,1 °C 95 % 1009,4 hPa 0,0 l/m² 0 min 0 min 0 W/m² 0,0 km/h (0 Bft) 100,00 %
08.02.2026 21:22 2,9 °C 1,7 °C -1,1 °C 95 % 1009,3 hPa 0,0 l/m² 0 min 0 min 0 W/m² 0,0 km/h (0 Bft) 100,00 %
08.02.2026 21:24 2,9 °C 1,7 °C -1,1 °C 95 % 1009,4 hPa 0,0 l/m² 0 min 0 min 0 W/m² 0,0 km/h (0 Bft) 100,00 %
08.02.2026 21:26 2,9 °C 1,7 °C -1,1 °C 95 % 1009,3 hPa 0,0 l/m² 0 min 0 min 0 W/m² 0,0 km/h (0 Bft) 100,00 %
08.02.2026 21:28 2,9 °C 1,7 °C -1,1 °C 95 % 1009,4 hPa 0,0 l/m² 0 min 0 min 0 W/m² 0,0 km/h (0 Bft) 97,87 %
08.02.2026 21:30 2,9 °C 1,7 °C -1,1 °C 95 % 1009,4 hPa 0,0 l/m² 0 min 0 min 0 W/m² 0,0 km/h (0 Bft) 100,00 %
08.02.2026 21:32 2,9 °C 1,7 °C -1,1 °C 95 % 1009,4 hPa 0,0 l/m² 0 min 0 min 0 W/m² 0,0 km/h (0 Bft) 100,00 %
08.02.2026 21:34 2,9 °C 1,7 °C -1,1 °C 95 % 1009,4 hPa 0,0 l/m² 0 min 0 min 0 W/m² 0,0 km/h (0 Bft) 97,87 %
08.02.2026 21:36 2,9 °C 1,7 °C -1,1 °C 95 % 1009,4 hPa 0,0 l/m² 0 min 0 min 0 W/m² 0,0 km/h (0 Bft) 97,87 %
08.02.2026 21:38 2,9 °C 1,7 °C -1,1 °C 95 % 1009,4 hPa 0,0 l/m² 0 min 0 min 0 W/m² 0,0 km/h (0 Bft) 93,62 %
08.02.2026 21:40 2,9 °C 2,2 °C -1,1 °C 95 % 1009,5 hPa 0,0 l/m² 0 min 0 min 0 W/m² 0,0 km/h (0 Bft) 97,87 %
08.02.2026 21:42 2,9 °C 2,2 °C -1,1 °C 95 % 1009,5 hPa 0,0 l/m² 0 min 0 min 0 W/m² 0,0 km/h (0 Bft) 97,87 %
08.02.2026 21:44 3,0 °C 2,2 °C -1,1 °C 95 % 1009,5 hPa 0,0 l/m² 0 min 0 min 0 W/m² 0,0 km/h (0 Bft) 97,87 %
08.02.2026 21:46 3,0 °C 2,2 °C -1,1 °C 95 % 1009,5 hPa 0,0 l/m² 0 min 0 min 0 W/m² 6,4 km/h (2 Bft) 97,87 %
08.02.2026 21:48 3,0 °C 2,2 °C -1,1 °C 95 % 1009,5 hPa 0,0 l/m² 0 min 0 min 0 W/m² 6,4 km/h (2 Bft) 97,87 %
08.02.2026 21:50 3,1 °C 2,2 °C -0,6 °C 96 % 1009,5 hPa 0,0 l/m² 0 min 0 min 0 W/m² 6,4 km/h (2 Bft) 97,87 %
08.02.2026 21:52 3,1 °C 2,2 °C -0,6 °C 96 % 1009,5 hPa 0,0 l/m² 0 min 0 min 0 W/m² 6,4 km/h (2 Bft) 97,83 %
08.02.2026 21:54 3,1 °C 2,2 °C -0,6 °C 96 % 1009,5 hPa 0,0 l/m² 0 min 0 min 0 W/m² 3,2 km/h (1 Bft) 97,87 %
08.02.2026 21:56 3,1 °C 2,2 °C -0,6 °C 96 % 1009,5 hPa 0,0 l/m² 0 min 0 min 0 W/m² 6,4 km/h (2 Bft) 97,87 %
08.02.2026 21:58 3,1 °C 2,2 °C -0,6 °C 96 % 1009,5 hPa 0,0 l/m² 0 min 0 min 0 W/m² 3,2 km/h (1 Bft) 95,74 %
08.02.2026 22:00 3,1 °C 2,2 °C -0,6 °C 96 % 1009,5 hPa 0,0 l/m² 0 min 0 min 0 W/m² 6,4 km/h (2 Bft) 95,74 %
08.02.2026 22:02 3,1 °C 2,2 °C -0,6 °C 96 % 1009,5 hPa 0,0 l/m² 0 min 0 min 0 W/m² 6,4 km/h (2 Bft) 93,62 %
08.02.2026 22:04 3,1 °C 2,2 °C -0,6 °C 96 % 1009,5 hPa 0,0 l/m² 0 min 0 min 0 W/m² 6,4 km/h (2 Bft) 97,87 %
08.02.2026 22:06 3,1 °C 2,2 °C -0,6 °C 96 % 1009,4 hPa 0,0 l/m² 0 min 0 min 0 W/m² 6,4 km/h (2 Bft) 100,00 %
08.02.2026 22:08 3,1 °C 2,2 °C -1,1 °C 96 % 1009,4 hPa 0,0 l/m² 0 min 0 min 0 W/m² 6,4 km/h (2 Bft) 100,00 %
08.02.2026 22:10 3,1 °C 2,2 °C -0,6 °C 96 % 1009,5 hPa 0,0 l/m² 0 min 0 min 0 W/m² 6,4 km/h (2 Bft) 50,00 %
08.02.2026 22:12 3,1 °C 2,2 °C -1,1 °C 96 % 1009,5 hPa 0,0 l/m² 0 min 0 min 0 W/m² 3,2 km/h (1 Bft) 97,87 %
08.02.2026 22:14 3,1 °C 2,2 °C -1,1 °C 96 % 1009,5 hPa 0,0 l/m² 0 min 0 min 0 W/m² 6,4 km/h (2 Bft) 95,74 %
08.02.2026 22:16 3,1 °C 2,2 °C -1,1 °C 96 % 1009,4 hPa 0,0 l/m² 0 min 0 min 0 W/m² 6,4 km/h (2 Bft) 97,83 %
08.02.2026 22:18 3,1 °C 2,2 °C -1,1 °C 96 % 1009,5 hPa 0,0 l/m² 0 min 0 min 0 W/m² 3,2 km/h (1 Bft) 96,00 %
08.02.2026 22:20 3,1 °C 2,2 °C -1,1 °C 96 % 1009,4 hPa 0,0 l/m² 0 min 0 min 0 W/m² 3,2 km/h (1 Bft) 97,87 %
08.02.2026 22:22 3,1 °C 2,2 °C -1,1 °C 96 % 1009,4 hPa 0,0 l/m² 0 min 0 min 0 W/m² 12,9 km/h (3 Bft) 97,87 %
08.02.2026 22:24 3,1 °C 2,2 °C -1,1 °C 96 % 1009,4 hPa 0,0 l/m² 0 min 0 min 0 W/m² 6,4 km/h (2 Bft) 95,74 %
08.02.2026 22:26 3,1 °C 2,2 °C -1,1 °C 96 % 1009,5 hPa 0,0 l/m² 0 min 0 min 0 W/m² 6,4 km/h (2 Bft) 95,74 %
08.02.2026 22:28 3,1 °C 2,2 °C -1,1 °C 96 % 1009,5 hPa 0,0 l/m² 0 min 0 min 0 W/m² 6,4 km/h (2 Bft) 95,74 %
08.02.2026 22:30 3,1 °C 2,2 °C -1,1 °C 96 % 1009,4 hPa 0,0 l/m² 0 min 0 min 0 W/m² 6,4 km/h (2 Bft) 97,87 %
08.02.2026 22:32 3,1 °C 2,2 °C -1,1 °C 96 % 1009,4 hPa 0,0 l/m² 0 min 0 min 0 W/m² 6,4 km/h (2 Bft) 97,87 %
08.02.2026 22:34 3,1 °C 2,2 °C -1,1 °C 96 % 1009,4 hPa 0,0 l/m² 0 min 0 min 0 W/m² 6,4 km/h (2 Bft) 94,29 %
08.02.2026 22:36 3,1 °C 2,2 °C -1,1 °C 96 % 1009,4 hPa 0,0 l/m² 0 min 0 min 0 W/m² 3,2 km/h (1 Bft) 97,87 %
08.02.2026 22:38 3,1 °C 2,2 °C -1,1 °C 96 % 1009,4 hPa 0,0 l/m² 0 min 0 min 0 W/m² 12,9 km/h (3 Bft) 97,87 %
08.02.2026 22:40 3,1 °C 2,2 °C -1,1 °C 96 % 1009,4 hPa 0,0 l/m² 0 min 0 min 0 W/m² 6,4 km/h (2 Bft) 97,87 %
08.02.2026 22:42 3,1 °C 2,2 °C -0,6 °C 96 % 1009,4 hPa 0,0 l/m² 0 min 0 min 0 W/m² 16,1 km/h (3 Bft) 97,87 %
08.02.2026 22:44 3,1 °C 2,2 °C -0,6 °C 96 % 1009,4 hPa 0,0 l/m² 0 min 0 min 0 W/m² 6,4 km/h (2 Bft) 97,83 %
08.02.2026 22:46 3,1 °C 2,2 °C -0,6 °C 96 % 1009,3 hPa 0,0 l/m² 0 min 0 min 0 W/m² 6,4 km/h (2 Bft) 97,87 %
08.02.2026 22:48 3,1 °C 2,2 °C -1,1 °C 96 % 1009,4 hPa 0,0 l/m² 0 min 0 min 0 W/m² 3,2 km/h (1 Bft) 97,87 %
08.02.2026 22:50 3,1 °C 2,2 °C -1,1 °C 96 % 1009,4 hPa 0,0 l/m² 0 min 0 min 0 W/m² 3,2 km/h (1 Bft) 97,87 %
08.02.2026 22:52 3,1 °C 2,2 °C -1,1 °C 96 % 1009,5 hPa 0,0 l/m² 0 min 0 min 0 W/m² 6,4 km/h (2 Bft) 97,87 %
08.02.2026 22:54 3,1 °C 2,2 °C -1,1 °C 96 % 1009,5 hPa 0,0 l/m² 0 min 0 min 0 W/m² 3,2 km/h (1 Bft) 97,87 %
08.02.2026 22:56 3,1 °C 2,2 °C -1,1 °C 96 % 1009,4 hPa 0,0 l/m² 0 min 0 min 0 W/m² 3,2 km/h (1 Bft) 100,00 %
08.02.2026 22:58 3,1 °C 2,2 °C -1,1 °C 96 % 1009,4 hPa 0,0 l/m² 0 min 0 min 0 W/m² 3,2 km/h (1 Bft) 95,74 %
08.02.2026 23:00 3,0 °C 2,2 °C -1,1 °C 96 % 1009,5 hPa 0,0 l/m² 0 min 0 min 0 W/m² 6,4 km/h (2 Bft) 85,11 %
08.02.2026 23:02 3,0 °C 2,2 °C -1,1 °C 96 % 1009,5 hPa 0,0 l/m² 0 min 0 min 0 W/m² 12,9 km/h (3 Bft) 64,44 %
08.02.2026 23:04 3,0 °C 2,2 °C -1,1 °C 96 % 1009,5 hPa 0,0 l/m² 0 min 0 min 0 W/m² 12,9 km/h (3 Bft) 97,92 %
08.02.2026 23:06 3,0 °C 2,2 °C -0,6 °C 96 % 1009,5 hPa 0,0 l/m² 0 min 0 min 0 W/m² 16,1 km/h (3 Bft) 98,28 %
08.02.2026 23:08 3,0 °C 2,2 °C -0,6 °C 96 % 1009,5 hPa 0,0 l/m² 0 min 0 min 0 W/m² 12,9 km/h (3 Bft) 97,14 %
08.02.2026 23:10 3,1 °C 2,2 °C -0,6 °C 96 % 1009,5 hPa 0,0 l/m² 0 min 0 min 0 W/m² 6,4 km/h (2 Bft) 95,74 %
08.02.2026 23:12 3,1 °C 2,2 °C -0,6 °C 96 % 1009,5 hPa 0,0 l/m² 0 min 0 min 0 W/m² 9,7 km/h (2 Bft) 95,74 %
08.02.2026 23:14 3,1 °C 2,2 °C -0,6 °C 96 % 1009,4 hPa 0,0 l/m² 0 min 0 min 0 W/m² 9,7 km/h (2 Bft) 97,87 %
08.02.2026 23:16 3,1 °C 2,2 °C -0,6 °C 96 % 1009,4 hPa 0,0 l/m² 0 min 0 min 0 W/m² 6,4 km/h (2 Bft) 95,74 %
08.02.2026 23:18 3,1 °C 2,2 °C -0,6 °C 96 % 1009,4 hPa 0,0 l/m² 0 min 0 min 0 W/m² 12,9 km/h (3 Bft) 97,87 %
08.02.2026 23:20 3,1 °C 2,2 °C -0,6 °C 96 % 1009,4 hPa 0,0 l/m² 0 min 0 min 0 W/m² 9,7 km/h (2 Bft) 93,62 %
08.02.2026 23:22 3,1 °C 2,2 °C -0,6 °C 96 % 1009,4 hPa 0,0 l/m² 0 min 0 min 0 W/m² 9,7 km/h (2 Bft) 97,87 %
08.02.2026 23:24 3,1 °C 2,2 °C -0,6 °C 96 % 1009,4 hPa 0,0 l/m² 0 min 0 min 0 W/m² 6,4 km/h (2 Bft) 95,56 %
08.02.2026 23:26 3,1 °C 2,2 °C -0,6 °C 96 % 1009,4 hPa 0,0 l/m² 0 min 0 min 0 W/m² 12,9 km/h (3 Bft) 93,62 %
08.02.2026 23:28 3,1 °C 2,2 °C -0,6 °C 96 % 1009,4 hPa 0,0 l/m² 0 min 0 min 0 W/m² 12,9 km/h (3 Bft) 95,74 %
08.02.2026 23:30 3,1 °C 2,2 °C -0,6 °C 96 % 1009,4 hPa 0,0 l/m² 0 min 0 min 0 W/m² 6,4 km/h (2 Bft) 95,74 %
08.02.2026 23:32 3,1 °C 2,2 °C -0,6 °C 96 % 1009,4 hPa 0,0 l/m² 0 min 0 min 0 W/m² 6,4 km/h (2 Bft) 100,00 %
08.02.2026 23:34 3,1 °C 2,2 °C -0,6 °C 96 % 1009,3 hPa 0,0 l/m² 0 min 0 min 0 W/m² 6,4 km/h (2 Bft) 97,87 %
08.02.2026 23:36 3,1 °C 2,2 °C -0,6 °C 96 % 1009,4 hPa 0,0 l/m² 0 min 0 min 0 W/m² 12,9 km/h (3 Bft) 95,74 %
08.02.2026 23:38 3,0 °C 2,2 °C -1,1 °C 96 % 1009,3 hPa 0,0 l/m² 0 min 0 min 0 W/m² 6,4 km/h (2 Bft) 94,55 %
08.02.2026 23:40 3,0 °C 2,2 °C -1,1 °C 96 % 1009,3 hPa 0,0 l/m² 0 min 0 min 0 W/m² 6,4 km/h (2 Bft) 93,62 %
08.02.2026 23:42 3,0 °C 2,2 °C -1,1 °C 96 % 1009,3 hPa 0,0 l/m² 0 min 0 min 0 W/m² 6,4 km/h (2 Bft) 93,62 %
08.02.2026 23:44 3,0 °C 2,2 °C -1,1 °C 96 % 1009,4 hPa 0,0 l/m² 0 min 0 min 0 W/m² 12,9 km/h (3 Bft) 93,62 %
08.02.2026 23:46 2,9 °C 2,2 °C -1,1 °C 96 % 1009,3 hPa 0,0 l/m² 0 min 0 min 0 W/m² 6,4 km/h (2 Bft) 95,74 %
08.02.2026 23:48 2,9 °C 2,2 °C -1,1 °C 96 % 1009,3 hPa 0,0 l/m² 0 min 0 min 0 W/m² 12,9 km/h (3 Bft) 95,74 %
08.02.2026 23:50 2,9 °C 2,2 °C -1,1 °C 96 % 1009,3 hPa 0,0 l/m² 0 min 0 min 0 W/m² 9,7 km/h (2 Bft) 95,65 %
08.02.2026 23:52 2,9 °C 2,2 °C -0,6 °C 96 % 1009,3 hPa 0,0 l/m² 0 min 0 min 0 W/m² 12,9 km/h (3 Bft) 97,87 %
08.02.2026 23:54 2,9 °C 2,2 °C -0,6 °C 96 % 1009,3 hPa 0,0 l/m² 0 min 0 min 0 W/m² 6,4 km/h (2 Bft) 97,87 %
08.02.2026 23:56 2,9 °C 2,2 °C -0,6 °C 96 % 1009,3 hPa 0,0 l/m² 0 min 0 min 0 W/m² 6,4 km/h (2 Bft) 100,00 %
08.02.2026 23:58 2,9 °C 2,2 °C -1,1 °C 96 % 1009,3 hPa 0,0 l/m² 0 min 0 min 0 W/m² 6,4 km/h (2 Bft) 95,74 %
_ Min-Zeit 21:08 20:52 20:06 17:10 00:24 - - - - 05:54 12:30
Minimum _ 2,9 °C 1,7 °C -1,1 °C 91 % 1007,1 hPa - - - - 0,0 km/h (0 Bft) 36,36 %
_ Max-Zeit 14:30 14:07 13:34 08:44 11:14 09:22 00:00 00:00 12:38 09:32 00:08
Maximum _ 6,7 °C 7,2 °C 3,3 °C 99 % 1009,7 hPa 0,2 l/m² 0 min 0 min 152 W/m² 25,7 km/h
S (4 Bft)
100,00 %
Durchschnitt _ 5,0 °C 4,4 °C 1,1 °C 95 % 1008,8 hPa #0,2 l/m² #0 min. #0 min. 75 W/m² 10,6 km/h (2 Bft) 96,71 %
© 2026 W. Hausmann